GFSMA_sfc_30mbdewp_042.txt.gz
Dewpoint
57 55 53 49 47 46 46 45 42 41 40 37 37 34 35 32 31 34 36 46 48 47 47 44 42 40 42 40 40 40 40 41 42 42 42 44 45 46 45 46 47 49 51
53 49 47 45 46 47 46 43 41 39 38 35 33 35 33 32 33 33 33 34 49 47 44 42 39 39 39 38 38 38 38 38 39 40 44 45 43 43 43 43 44 45 47
51 49 46 45 46 46 43 41 40 37 35 34 32 33 32 32 33 32 34 36 49 48 44 39 38 38 38 37 38 37 36 37 38 45 44 43 42 41 40 41 42 43 44
50 48 45 46 47 46 43 41 39 36 34 34 32 31 30 33 32 30 31 34 41 44 45 38 37 35 35 35 35 35 34 34 36 36 41 40 41 39 38 39 41 41 41
49 46 47 47 46 43 42 41 38 36 34 34 31 31 32 31 31 30 29 30 31 33 33 37 34 34 30 30 30 30 30 31 33 37 37 38 37 37 36 35 40 40 41
48 48 46 45 44 43 41 41 37 37 36 35 31 32 32 31 30 29 28 30 28 27 29 28 30 31 32 29 28 27 28 28 32 31 30 30 35 33 33 34 34 39 40
49 48 46 43 41 38 38 39 37 35 35 35 31 33 32 31 29 29 28 28 26 25 26 25 28 29 27 26 23 24 24 25 28 27 27 28 29 30 31 32 32 33 38
47 44 43 40 38 38 37 37 36 36 36 35 32 31 29 29 30 28 27 28 26 26 25 24 23 24 25 25 28 30 28 24 24 24 25 27 27 28 28 29 29 31 33
44 43 41 40 38 38 36 37 37 36 34 35 35 31 29 27 29 28 27 26 26 26 26 25 24 23 24 23 25 27 30 31 29 27 26 26 26 26 27 28 27 28 30
43 42 41 39 39 39 39 40 39 38 37 36 35 34 32 31 29 29 26 26 27 26 26 27 26 25 25 24 27 26 28 28 26 27 25 26 26 25 25 26 26 27 32
42 42 41 40 39 38 36 34 34 35 38 36 34 33 33 33 31 29 28 26 28 27 27 27 26 25 25 25 25 24 33 29 27 26 25 24 24 25 25 25 26 25 26
39 38 36 36 34 33 33 33 32 32 33 35 36 35 34 32 31 31 31 31 28 27 27 27 26 26 26 26 27 29 31 27 26 25 25 25 25 24 25 25 25 26 26
35 34 33 33 32 31 31 31 30 31 32 34 36 36 36 35 35 34 32 31 31 28 28 27 26 26 27 25 25 27 26 27 26 24 24 24 24 24 24 24 24 25 25
33 33 32 31 30 31 30 31 33 34 35 34 34 34 35 36 36 35 34 33 30 28 27 26 26 25 22 24 23 24 23 24 22 23 23 23 23 22 22 23 23 23 24
32 32 30 29 29 29 31 33 33 32 33 33 34 35 35 35 34 33 33 34 32 27 25 24 19 20 21 21 21 22 21 22 21 23 22 22 23 23 23 22 24 24 25
32 31 29 28 28 29 33 31 30 31 31 32 31 31 31 31 30 30 30 29 27 23 19 19 18 20 20 19 19 20 21 21 22 23 25 23 24 24 24 23 24 24 24
32 33 32 27 27 29 32 30 30 31 30 30 29 29 28 28 27 23 23 21 18 18 15 17 18 19 19 19 20 21 22 21 22 22 23 23 24 25 24 24 24 24 25
33 33 29 27 29 30 29 28 29 30 29 28 28 28 27 26 21 22 20 18 17 17 17 14 17 17 18 19 20 20 21 21 21 23 21 21 21 22 25 27 28 27 27
31 29 28 28 29 30 29 29 28 29 29 28 26 21 22 22 19 21 18 17 17 16 17 17 17 18 18 18 19 21 21 20 23 18 16 17 18 20 25 24 24 25 27
29 28 28 29 30 31 30 29 28 29 29 24 23 22 21 20 18 16 16 16 16 17 18 18 18 18 18 19 20 19 20 21 18 17 18 19 20 22 22 22 24 24 26
29 28 29 29 30 31 30 29 29 27 25 24 23 22 21 21 24 21 17 17 19 18 17 17 17 18 18 17 18 21 22 17 17 18 18 20 22 21 22 24 24 24 26
29 28 26 29 29 30 29 29 29 26 24 22 21 21 22 22 21 22 22 21 20 17 15 16 17 16 15 17 17 17 17 17 17 20 21 21 22 22 23 24 25 25 27
27 26 29 29 29 31 29 29 28 24 22 22 21 22 21 21 22 19 19 19 17 17 15 17 16 16 15 14 16 17 19 20 20 22 22 21 22 22 24 24 25 26 27
28 28 28 29 30 29 30 30 28 23 22 21 23 23 22 21 20 18 17 16 17 16 15 16 17 17 16 19 21 23 24 24 24 22 22 20 21 22 24 25 26 27 30
28 28 29 29 29 28 30 31 27 22 21 22 23 24 23 22 21 21 18 17 17 15 14 16 17 18 18 19 21 22 21 20 18 18 21 21 22 23 24 24 25 27 28
28 28 27 28 29 28 30 31 27 24 22 23 23 24 23 20 21 20 19 18 16 14 14 17 17 17 18 19 20 21 21 20 19 17 20 22 21 24 22 23 26 26 24

GFSMA_sfc_30mbdewp_045.txt.gz
Dewpoint
53 52 52 50 46 46 44 42 41 38 36 33 35 32 32 33 33 33 34 38 47 47 47 44 41 43 41 40 40 40 40 40 41 43 44 44 43 43 43 43 43 44 45
55 52 47 46 46 46 43 41 38 35 34 32 33 32 32 32 31 32 35 36 48 49 44 41 40 41 40 39 39 38 39 38 39 44 43 42 43 41 41 41 42 43 43
51 47 46 46 47 44 41 40 37 35 33 33 31 31 32 32 30 31 35 45 47 44 42 39 39 39 37 38 37 37 36 36 37 37 38 40 40 40 38 39 38 41 42
49 46 46 46 46 43 42 39 36 35 34 32 30 30 31 32 31 29 30 34 40 44 40 38 34 31 31 32 32 32 33 32 33 35 36 36 37 37 36 36 37 37 39
48 46 46 48 45 43 41 39 37 35 33 32 31 31 32 30 30 29 29 27 29 30 31 32 37 36 31 31 30 29 30 31 31 33 33 32 32 34 34 33 34 35 35
47 47 47 45 43 42 41 39 37 37 35 33 31 32 33 31 30 28 28 27 25 27 26 28 29 34 29 26 26 27 28 28 28 30 29 29 29 30 30 31 32 33 33
49 46 45 44 42 39 39 37 36 35 35 35 31 33 32 31 29 29 28 26 25 26 25 26 27 26 25 30 30 28 27 28 27 27 27 26 28 28 28 28 29 30 31
48 46 43 41 39 38 37 36 36 36 36 35 32 31 29 29 29 30 27 28 26 26 24 23 23 24 24 23 27 26 26 25 24 25 25 26 26 27 27 28 28 29 29
48 45 42 40 38 37 36 36 36 36 34 35 35 32 30 28 29 30 28 27 26 26 26 25 24 24 25 23 25 28 29 27 22 23 24 25 26 26 26 26 27 29 28
44 42 41 40 39 39 38 40 38 38 37 34 35 35 33 31 29 29 28 26 28 27 27 27 26 26 26 25 27 29 30 32 33 25 24 25 25 25 25 25 26 27 28
43 43 41 40 40 38 35 34 34 35 37 35 35 33 33 33 31 31 29 29 28 29 29 28 28 27 27 27 27 28 31 30 29 28 26 26 26 25 25 25 25 25 27
41 40 38 36 34 34 32 31 31 31 32 34 35 35 34 33 32 30 29 30 30 30 28 28 28 27 27 25 26 30 28 28 27 26 26 26 26 27 27 26 25 24 25
36 35 34 33 32 32 33 31 31 32 34 34 35 35 36 35 34 33 33 31 31 31 28 28 27 27 22 24 24 25 26 26 25 25 24 25 25 24 24 24 24 24 25
35 34 34 34 34 31 31 31 33 35 34 33 33 34 34 35 36 35 34 33 30 29 28 27 27 21 21 22 22 22 22 24 22 22 23 23 23 23 23 24 24 25 25
35 36 36 33 31 31 32 33 34 32 32 32 33 34 34 35 34 34 33 34 32 27 25 25 19 21 20 20 19 20 21 21 21 22 22 23 24 24 24 23 24 25 25
38 36 32 33 33 33 32 34 31 31 31 32 31 31 31 31 31 31 31 32 33 29 22 21 19 19 19 19 18 20 21 22 22 23 22 22 23 24 24 24 24 24 24
34 34 38 35 33 30 32 31 30 31 31 30 30 30 29 29 28 26 24 22 20 19 16 16 18 18 18 18 18 20 21 21 22 22 22 23 22 22 22 23 24 25 24
37 39 36 32 29 30 31 30 29 30 29 28 28 28 27 28 23 22 22 20 18 18 16 14 16 17 18 18 18 19 20 21 21 21 20 18 18 19 20 21 24 27 27
35 33 31 29 29 30 31 30 29 30 29 29 29 28 24 24 21 21 21 19 17 17 17 17 17 18 18 18 18 20 20 21 22 19 17 17 20 21 22 22 24 23 23
30 29 29 29 29 30 30 30 29 28 29 29 28 23 22 21 20 19 18 17 16 16 17 18 18 16 17 18 19 19 18 19 18 17 18 20 21 22 23 24 24 25 25
30 30 29 30 30 31 31 31 30 29 29 28 25 24 22 22 21 19 18 17 16 18 18 16 15 15 16 15 17 17 17 16 18 19 19 20 21 22 23 24 24 25 25
29 31 34 30 29 31 30 30 30 29 28 26 24 23 22 24 25 24 25 21 20 17 16 15 14 13 14 16 16 16 17 18 16 20 21 21 22 22 23 24 25 26 27
37 36 32 30 29 29 30 31 31 29 27 25 23 22 21 21 22 23 25 23 20 19 19 16 13 14 16 16 16 18 19 20 20 22 23 19 20 21 22 23 24 26 27
35 30 29 28 29 29 30 30 30 29 25 24 23 22 22 22 22 21 18 17 17 17 17 14 15 17 17 18 19 21 23 22 21 20 20 18 19 21 22 24 25 26 27
30 28 28 29 28 28 29 30 31 28 24 23 23 24 23 24 23 24 20 18 18 18 16 15 17 18 19 18 18 18 18 19 16 17 18 21 20 20 22 24 25 26 27
29 28 27 27 27 27 28 29 32 28 25 24 23 23 25 25 23 24 22 19 18 18 15 14 16 17 17 18 18 18 19 18 17 15 20 19 19 22 21 23 23 24 24

GFSMA_sfc_30mbdewp_048.txt.gz
Dewpoint
51 51 52 47 46 45 42 40 37 34 34 34 32 32 32 31 32 35 35 44 49 48 48 43 42 43 42 41 40 39 41 39 41 42 41 41 41 41 40 41 41 42 43
52 52 50 46 46 43 41 39 35 33 32 32 31 32 32 30 30 36 41 49 49 48 44 42 41 41 41 40 40 38 38 38 38 37 38 40 39 38 39 38 38 40 41
54 49 47 46 45 42 39 37 35 34 32 32 30 31 32 30 30 33 38 44 43 45 42 41 41 39 37 38 36 35 35 35 35 35 36 35 35 35 36 35 37 37 38
51 47 46 46 43 42 39 37 35 34 33 31 30 31 31 31 29 29 29 37 41 35 39 38 36 33 30 31 32 33 32 33 33 32 35 34 33 33 33 34 34 35 35
47 46 47 46 44 42 40 38 37 35 33 31 30 32 31 30 29 28 26 26 29 30 27 36 39 35 33 31 30 29 29 30 30 30 31 31 30 30 31 31 32 33 34
47 46 47 46 43 42 39 38 36 36 34 32 31 32 33 30 29 28 27 25 25 27 26 28 31 31 31 29 29 29 29 30 30 30 29 29 29 29 30 29 29 31 31
47 47 47 44 43 41 39 36 36 35 35 34 31 33 31 31 30 29 28 26 26 26 26 27 27 25 24 29 29 28 28 28 27 27 27 27 28 28 28 29 29 30 29
48 46 44 43 41 39 38 37 36 36 36 34 33 31 29 30 29 31 28 28 26 26 24 24 23 24 24 23 26 28 28 26 25 25 26 26 27 28 28 28 28 28 29
48 45 43 41 39 38 37 36 36 35 34 35 35 32 28 27 29 31 28 28 27 26 26 25 25 25 25 25 26 29 31 30 26 26 25 25 26 27 27 27 27 27 27
47 45 42 39 39 39 38 38 38 37 36 33 35 35 33 32 30 29 30 27 27 28 28 27 27 27 27 27 28 30 32 33 32 27 26 26 26 26 26 26 27 27 28
44 42 41 40 40 38 36 34 34 35 37 35 34 34 33 33 32 31 30 30 29 29 29 31 29 28 28 26 28 31 31 30 28 28 28 28 28 27 26 26 26 27 27
43 41 40 38 35 34 31 31 33 32 31 33 34 34 34 33 32 31 30 30 30 31 30 30 29 27 25 25 24 27 27 28 27 27 27 27 28 28 27 26 26 26 26
39 38 36 34 33 34 37 35 31 30 32 33 34 34 35 35 35 33 32 31 31 31 30 30 28 25 22 23 23 23 23 23 23 24 24 24 24 24 25 25 25 25 25
37 36 35 37 40 37 33 33 32 34 34 34 33 33 33 34 36 36 34 33 29 30 29 29 27 22 21 21 21 20 20 22 21 21 22 24 24 24 24 25 25 25 25
37 37 41 41 34 32 37 35 33 34 33 32 31 32 33 34 35 35 35 34 32 26 25 26 26 23 20 19 19 21 20 20 22 22 23 23 24 23 24 24 25 26 26
37 41 41 34 34 38 35 33 32 33 31 31 32 31 32 33 32 32 32 33 34 31 26 24 21 20 19 19 19 20 19 21 21 23 23 23 23 23 23 23 23 23 24
41 40 35 36 38 34 32 32 32 31 31 30 31 31 30 30 30 29 29 27 28 29 23 18 19 19 18 18 19 19 20 21 22 22 22 23 21 21 21 21 21 22 23
37 36 40 38 33 30 30 32 31 30 31 30 29 29 29 29 27 26 23 22 20 20 17 15 16 17 17 18 18 18 18 19 21 21 22 20 19 21 22 23 23 22 23
38 37 36 33 30 30 31 32 32 30 30 30 29 29 28 28 27 23 22 21 20 18 17 17 16 18 18 18 17 19 19 20 20 19 18 18 20 23 23 23 25 24 23
35 34 34 31 32 34 33 32 31 30 30 30 29 29 28 25 22 21 21 20 19 17 17 16 17 17 16 16 19 17 17 16 16 17 19 20 21 22 22 23 24 25 26
32 31 33 37 36 34 31 31 31 30 29 28 29 28 26 23 24 23 19 18 17 16 16 18 17 15 14 13 12 17 16 17 18 19 19 20 21 21 22 23 23 24 25
34 38 39 38 37 34 31 31 31 30 30 29 28 27 25 25 26 27 27 24 19 17 17 16 15 15 13 12 17 16 17 17 14 20 21 20 20 20 21 22 23 24 25
40 39 38 37 33 30 29 30 31 31 30 29 28 26 24 22 24 23 23 26 25 23 19 17 16 15 13 15 16 17 18 18 18 20 20 18 18 19 21 21 23 25 27
38 37 34 31 29 29 30 30 30 30 30 28 27 25 24 23 24 22 22 23 22 19 19 19 17 15 16 18 18 19 20 19 19 18 19 16 18 20 20 21 23 26 28
35 31 29 29 28 28 28 28 29 29 29 27 26 24 23 24 25 26 23 20 19 18 19 21 19 18 20 20 19 19 16 16 15 14 16 18 20 18 19 22 24 25 24
29 29 27 27 27 27 28 28 29 29 28 27 25 24 25 25 25 27 26 22 19 18 18 16 14 16 18 18 19 19 18 16 16 13 18 16 17 19 17 22 23 24 25

GFSMA_sfc_30mbdewp_051.txt.gz
Dewpoint
55 53 52 49 47 45 43 40 38 36 36 35 34 33 33 34 37 37 37 52 50 48 48 43 47 43 43 41 40 40 39 39 39 38 39 41 39 38 38 38 39 40 41
54 53 50 48 46 44 42 39 37 35 34 33 34 34 33 33 37 42 45 46 49 48 45 43 43 42 41 41 39 38 38 37 36 36 36 37 37 36 37 37 37 38 39
54 53 49 48 45 44 41 39 37 37 34 32 33 34 32 33 34 41 44 43 43 45 43 42 42 38 37 37 35 34 35 34 34 35 34 37 36 33 35 34 35 36 37
55 53 49 48 46 43 41 40 38 36 35 33 33 33 32 31 32 34 43 42 39 39 38 37 36 33 30 31 31 31 31 32 32 32 33 32 32 31 31 32 33 34 35
55 52 50 47 45 43 42 40 39 38 35 34 32 34 33 30 31 28 30 33 33 32 30 38 40 35 33 31 30 29 30 31 32 33 32 32 31 31 30 31 30 30 32
52 50 50 47 45 43 42 41 39 39 36 35 31 33 36 32 30 30 28 27 30 30 28 29 29 30 34 33 32 30 29 31 32 31 30 30 30 30 30 30 31 30 31
50 49 48 47 45 43 42 41 40 39 37 38 34 34 35 35 33 31 30 28 30 29 29 28 28 26 25 29 28 28 30 30 30 29 29 29 29 29 30 30 31 30 30
49 49 48 46 45 43 42 40 40 38 38 37 35 34 30 30 32 32 31 30 32 28 26 26 26 26 26 25 27 30 30 31 29 29 28 28 28 28 29 29 29 29 29
49 48 48 46 44 43 40 40 40 39 37 38 38 34 28 23 28 32 33 31 32 29 29 30 28 28 29 28 28 28 31 32 32 30 29 28 28 28 28 29 29 29 29
49 47 46 45 43 41 40 40 40 40 38 34 37 37 37 33 23 21 31 32 32 30 31 33 30 32 30 28 29 31 34 33 31 30 30 29 29 29 29 29 28 28 28
48 46 45 43 42 41 42 41 40 38 36 33 32 32 34 33 34 30 22 24 31 32 33 34 34 32 30 27 28 29 29 29 29 28 29 29 30 30 29 29 28 28 28
48 46 43 43 42 41 39 38 38 39 35 35 32 33 30 27 25 28 26 26 30 31 32 30 31 32 28 25 22 25 25 25 24 23 24 25 26 26 26 27 27 27 27
45 44 43 42 39 37 37 40 37 34 32 33 34 33 34 32 31 30 29 27 29 27 27 29 30 30 25 24 23 23 21 22 22 21 22 23 24 25 26 26 27 26 26
45 43 41 38 36 39 41 37 37 35 36 36 36 36 32 31 32 32 31 30 26 24 24 27 29 29 26 24 22 21 19 20 20 20 22 24 24 25 25 25 25 25 25
42 41 39 37 41 39 36 39 37 35 36 37 36 34 32 31 33 33 34 32 29 26 19 20 24 26 27 23 20 20 19 18 18 21 22 22 24 24 24 24 24 25 24
41 40 39 41 37 37 40 37 35 35 35 35 33 33 32 31 32 32 32 31 30 26 22 20 21 22 22 18 18 20 18 18 17 19 22 23 23 24 24 23 23 23 23
40 41 42 37 36 41 39 34 33 33 34 33 33 32 31 32 31 31 32 31 28 27 25 21 20 19 19 18 18 18 16 13 13 17 20 22 22 23 22 21 22 23 24
41 42 38 37 41 36 33 33 35 32 33 32 32 32 31 30 31 31 30 28 26 24 22 17 16 17 18 18 19 17 13 12 15 15 18 21 21 21 21 24 25 24 25
40 39 39 39 36 36 35 35 34 34 34 33 32 32 31 31 30 29 28 26 24 22 20 18 16 17 18 18 16 15 11 14 13 14 15 17 19 22 23 23 24 24 25
39 39 38 38 38 34 34 34 35 34 33 32 32 32 31 31 30 29 28 25 23 21 19 17 17 16 17 16 16 11 9 11 11 13 15 18 20 21 21 21 22 24 25
38 36 35 35 37 37 36 36 35 34 32 32 32 32 31 31 31 29 25 25 23 21 18 19 17 17 16 14 12 8 11 11 13 14 16 16 15 16 17 18 20 21 23
36 37 38 39 39 39 38 37 34 32 31 31 30 30 31 30 30 29 28 25 25 21 20 22 18 17 15 16 13 11 12 13 12 14 15 14 15 14 16 18 19 22 24
39 39 40 40 40 39 35 31 30 31 32 31 31 30 30 28 27 27 27 29 30 26 24 22 21 19 18 17 10 12 13 13 13 13 13 14 15 14 18 17 18 21 26
39 39 38 38 35 32 30 30 30 30 29 29 30 30 30 29 28 26 26 27 23 26 25 22 20 19 19 16 13 16 17 17 15 13 13 13 14 16 16 18 19 22 27
37 35 33 31 30 30 30 29 29 29 29 29 29 29 29 28 28 26 27 28 24 25 22 22 21 21 21 19 21 18 17 15 14 13 13 16 14 14 15 17 21 22 22
29 29 28 29 29 28 29 29 29 30 30 29 29 29 28 28 27 27 28 29 28 25 21 19 20 20 19 18 20 18 16 16 14 13 10 14 13 14 13 15 19 19 22

GFSMA_sfc_30mbdewp_054.txt.gz
Dewpoint
50 49 51 49 47 47 45 44 42 40 39 38 35 32 32 33 34 31 37 51 50 49 47 45 46 44 43 42 40 40 39 39 38 38 38 38 38 38 37 38 38 38 39
54 51 50 49 47 46 45 43 42 40 38 37 35 33 32 31 34 37 36 43 50 50 46 44 44 43 42 42 39 37 37 37 36 36 36 38 38 35 36 35 36 36 38
53 52 51 49 47 47 45 44 42 41 38 35 34 32 29 31 32 35 35 37 43 45 45 44 42 39 38 38 36 35 35 33 34 34 34 35 34 33 34 33 34 34 35
54 54 51 50 49 47 45 43 42 41 38 35 33 31 30 29 31 32 37 37 36 37 40 38 37 34 31 30 31 32 31 32 33 34 34 34 33 33 33 32 32 32 32
59 54 52 51 51 45 43 43 43 42 39 35 32 33 34 29 30 25 30 35 35 29 27 37 37 36 34 32 31 30 30 32 34 34 34 34 33 33 33 32 32 32 32
60 57 54 52 47 44 44 43 43 41 38 34 29 32 36 33 30 30 29 27 28 31 29 27 28 30 33 34 32 31 29 32 34 34 33 32 32 32 32 32 32 32 32
58 57 54 52 47 45 45 46 43 42 38 38 36 37 37 37 34 31 31 28 28 30 29 28 28 26 26 29 27 28 31 33 33 33 32 32 31 31 31 31 31 31 32
55 54 52 50 48 47 45 45 43 40 39 39 37 37 36 35 34 33 31 30 30 31 28 28 29 29 28 26 28 30 30 32 32 32 32 32 31 31 30 30 30 31 31
53 52 52 50 49 47 45 44 44 41 38 39 39 37 35 33 30 31 32 32 31 32 29 27 31 31 30 30 31 30 33 34 33 32 32 32 32 31 31 31 31 30 30
53 52 51 50 49 46 45 44 43 41 40 38 39 37 35 32 30 29 29 31 32 32 30 31 31 32 32 31 30 31 33 32 32 31 31 31 31 31 31 31 31 31 31
54 51 50 49 49 46 45 44 42 42 40 38 36 34 34 34 33 30 25 21 22 27 29 31 31 31 30 30 29 31 29 28 28 27 25 26 27 28 28 28 28 28 28
53 50 48 48 47 45 45 44 44 40 41 39 35 32 33 30 25 22 22 23 23 24 27 29 28 28 29 29 28 24 24 25 26 24 23 23 24 25 26 26 27 28 28
51 49 48 47 46 45 45 42 39 41 37 37 33 33 30 27 26 26 25 25 22 23 24 25 27 27 26 26 26 25 24 24 23 23 23 22 23 25 26 27 27 27 27
51 51 49 47 45 42 40 40 41 37 36 35 36 34 29 29 29 28 24 24 25 24 22 22 23 25 25 24 25 24 22 22 22 22 22 22 23 23 24 25 26 26 26
51 48 47 45 43 40 41 38 40 39 39 36 35 35 32 30 29 28 28 27 26 26 22 19 19 22 23 24 23 22 21 20 21 21 20 21 22 23 24 25 25 25 25
47 46 45 44 42 41 40 42 41 39 38 39 38 34 32 29 29 29 28 27 26 24 21 20 19 20 22 20 20 18 19 20 20 19 17 20 23 23 23 24 24 24 23
45 45 44 44 40 40 42 41 39 37 37 39 35 32 31 30 29 28 28 27 26 24 22 21 20 20 20 21 21 19 19 17 14 14 16 18 20 21 23 23 23 23 24
45 44 43 41 39 42 41 38 37 38 39 34 32 31 30 29 29 30 28 27 26 25 23 21 20 20 18 19 20 19 18 14 12 13 17 17 19 19 21 22 23 24 25
43 43 41 39 40 40 37 38 40 40 36 34 33 30 30 30 29 29 28 26 25 23 23 22 21 20 19 19 18 18 16 13 11 11 14 17 16 18 21 22 23 24 24
43 40 40 41 38 38 41 40 39 37 37 34 32 32 30 29 29 28 27 26 26 26 24 22 22 20 18 18 18 16 13 8 9 9 12 16 18 18 20 22 22 21 23
40 40 40 40 40 39 38 37 38 38 37 34 32 31 31 31 31 31 27 25 25 26 24 23 24 20 19 18 17 13 13 9 11 12 13 13 13 14 15 16 19 19 22
37 36 37 38 39 38 39 39 39 36 33 31 30 29 29 30 31 32 33 31 29 26 28 28 23 22 21 19 15 15 13 9 10 13 13 13 13 14 14 14 19 21 21
39 40 40 40 39 40 40 39 35 30 29 29 29 28 27 25 26 28 31 31 29 26 29 31 25 24 23 18 17 15 11 10 12 13 13 12 14 14 15 15 19 20 20
40 40 39 38 36 33 31 30 30 29 28 27 27 26 26 26 25 26 28 28 28 28 31 29 25 24 21 20 18 16 14 16 16 15 13 13 14 14 16 16 18 19 21
35 33 31 30 29 28 29 29 29 26 25 25 25 25 25 25 25 28 28 28 28 28 28 26 27 25 22 21 20 18 16 15 16 14 13 13 13 13 14 15 17 22 23
26 26 25 25 26 26 28 30 30 29 29 29 28 27 27 26 27 29 29 29 29 29 29 28 24 24 24 22 23 20 17 15 15 14 12 12 13 12 14 15 16 17 21

GFSMA_sfc_30mbdewp_057.txt.gz
Dewpoint
54 53 51 49 48 48 48 46 46 44 43 40 37 34 33 34 34 32 41 49 50 51 48 49 46 45 43 42 41 40 39 39 38 38 38 38 40 39 37 37 37 37 38
54 51 52 50 48 48 47 46 45 44 41 40 38 34 32 31 35 36 37 44 51 51 47 45 46 44 44 42 40 38 37 37 36 36 36 37 37 35 35 36 36 36 36
54 51 51 50 49 48 48 47 46 44 42 38 37 34 31 32 33 34 34 40 44 46 46 46 44 41 39 39 37 35 35 35 34 35 36 36 36 35 35 35 34 34 34
54 52 52 51 50 49 48 47 45 44 43 39 36 33 32 31 32 32 36 36 37 42 44 42 39 35 32 32 33 33 33 33 34 35 36 37 36 36 35 35 35 34 34
54 54 52 52 52 50 49 46 46 46 43 39 35 35 37 33 33 28 31 36 36 29 29 40 36 33 32 32 31 32 32 32 33 35 36 36 35 34 34 34 34 34 34
59 56 53 53 53 51 47 46 46 45 44 39 31 32 39 38 35 33 32 31 30 31 32 30 30 31 34 32 31 30 31 32 34 36 36 35 34 34 33 33 33 33 33
58 60 57 55 55 49 48 47 46 45 43 40 38 38 40 41 40 35 33 32 30 30 31 31 30 28 31 32 32 30 29 34 34 36 35 35 34 34 33 33 32 32 32
57 58 58 56 54 50 48 48 47 46 44 41 39 38 39 39 38 38 35 33 33 33 32 30 30 30 31 30 32 32 32 32 33 34 34 34 34 34 34 33 33 33 33
57 57 57 55 53 51 49 48 46 46 43 42 41 39 39 37 36 35 36 35 35 34 33 32 29 30 32 32 32 33 34 34 34 34 34 34 33 33 33 32 32 32 32
58 58 56 57 54 52 50 49 47 47 44 41 41 41 39 37 35 34 33 33 34 34 34 33 31 32 32 32 31 33 35 33 32 31 31 30 30 30 30 30 30 30 29
57 56 56 56 54 52 49 48 47 47 44 42 41 37 37 38 38 36 33 30 27 26 27 30 32 32 30 29 29 34 31 28 28 29 28 28 28 26 26 26 27 28 28
57 56 55 54 54 52 50 49 48 46 44 41 40 37 34 37 34 32 28 26 26 27 27 27 29 29 29 28 29 29 27 26 26 27 26 26 26 25 25 26 27 28 28
56 55 54 52 52 51 52 49 46 42 42 41 37 33 38 35 32 29 28 27 27 26 25 26 27 27 26 27 26 28 28 26 27 27 25 25 25 24 25 26 26 27 27
56 55 52 52 52 48 44 45 45 43 40 38 36 40 36 32 32 30 29 27 26 25 26 25 24 23 24 25 27 27 25 27 29 27 24 25 23 24 24 24 25 26 26
56 54 53 51 47 47 47 46 43 40 40 39 39 40 39 39 35 32 30 28 27 28 25 23 21 21 22 23 23 24 24 23 25 25 24 22 22 21 24 25 25 26 26
54 52 50 48 47 46 46 43 43 41 39 41 40 39 39 39 34 31 30 29 28 26 24 22 21 22 22 21 22 22 22 23 22 24 26 25 20 20 22 23 24 25 25
51 49 47 47 45 45 43 43 41 39 39 40 37 38 40 35 34 33 31 29 27 26 24 23 22 23 24 23 22 22 23 22 22 21 23 22 20 21 21 22 23 24 24
48 47 46 46 43 43 43 41 38 38 39 37 38 40 37 33 34 33 32 31 29 27 26 25 24 23 24 23 23 22 21 18 19 17 20 21 20 20 20 21 22 23 24
46 46 44 42 41 42 41 39 38 39 40 41 41 37 36 34 33 33 31 30 29 25 26 26 24 24 23 22 21 22 21 22 18 17 17 19 19 20 20 21 22 23 24
44 43 42 41 41 40 39 39 40 41 41 39 39 38 36 33 32 31 30 30 28 28 27 26 26 25 25 22 22 20 21 20 17 12 11 13 16 17 20 23 24 23 25
42 41 41 40 39 39 40 41 41 39 40 39 40 38 34 33 32 32 29 31 30 28 26 25 26 26 24 23 23 22 22 21 16 14 13 14 15 15 16 17 19 24 25
41 40 40 40 40 40 39 38 38 39 38 34 31 29 29 29 30 30 30 31 32 31 31 30 27 26 26 27 25 24 24 18 16 13 14 14 15 14 15 16 18 18 22
39 39 40 40 40 40 39 39 39 36 30 29 28 28 27 25 26 26 28 30 32 32 32 32 30 29 28 28 26 23 22 18 17 13 15 15 18 17 16 14 19 22 22
41 40 40 40 39 36 36 33 30 28 26 25 24 24 26 26 27 27 27 28 28 28 30 31 29 29 30 32 26 25 21 18 17 16 17 17 16 16 18 18 18 21 24
38 35 31 30 28 27 28 30 29 28 28 28 27 26 26 27 28 29 28 28 28 28 28 30 31 32 27 23 22 23 22 19 19 15 17 16 15 15 15 17 19 18 21
27 25 24 25 27 27 27 25 24 23 23 23 22 22 23 23 23 26 30 31 30 29 29 28 31 31 29 26 23 21 21 20 18 17 16 16 13 14 14 17 17 20 19

GFSMA_sfc_30mbdewp_060.txt.gz
Dewpoint
55 53 52 51 49 51 49 49 48 46 44 42 39 36 36 36 36 42 45 49 49 51 50 48 47 45 44 43 41 40 39 39 38 38 38 39 39 37 37 37 37 37 37
57 53 55 52 52 51 50 50 48 46 46 41 38 36 35 36 37 40 44 49 50 52 48 48 47 46 45 44 41 38 37 37 36 36 37 37 37 37 37 37 37 36 36
56 54 54 54 53 51 50 50 49 47 44 43 39 36 35 35 35 36 42 45 49 48 46 45 46 44 41 40 39 37 35 35 35 36 37 38 38 37 38 37 37 37 36
56 56 54 54 53 52 51 50 47 47 46 43 39 36 35 34 33 33 37 42 45 46 48 46 43 40 36 34 35 35 34 33 34 35 37 37 37 37 36 36 36 36 35
57 56 55 54 54 52 51 51 48 49 47 43 39 38 38 37 34 33 33 37 38 39 45 45 42 38 35 34 31 31 32 32 33 35 37 37 37 36 36 35 35 35 34
55 56 56 55 55 53 51 49 48 49 48 44 38 36 41 39 37 36 34 33 36 33 33 40 38 37 35 33 33 32 31 32 33 36 36 37 36 35 35 34 34 34 33
59 58 56 56 56 54 51 50 50 47 46 43 39 39 41 42 42 39 37 36 34 34 34 34 33 33 36 35 34 33 31 31 34 34 35 35 35 35 35 35 35 35 35
60 59 59 58 57 55 52 50 49 47 46 46 41 41 40 43 43 42 39 37 36 35 35 35 33 32 32 34 36 34 33 34 34 35 35 35 35 35 34 34 33 33 33
60 59 60 59 58 56 53 51 50 48 46 47 43 42 41 40 38 41 40 39 38 37 36 35 34 32 33 34 36 37 35 35 34 33 34 34 34 33 33 33 32 31 31
59 58 58 57 57 56 55 54 51 49 48 44 45 43 41 38 37 36 40 39 39 37 36 36 35 34 34 36 34 37 37 35 33 32 31 31 31 31 30 29 28 28 29
59 58 58 58 57 58 57 53 51 50 49 47 44 40 38 39 40 39 37 36 36 37 36 39 36 36 34 32 32 37 36 32 30 29 29 28 27 28 28 27 27 27 28
58 58 58 57 57 56 53 52 53 51 52 47 41 39 38 37 38 35 35 35 32 31 31 33 36 33 32 32 32 36 35 31 29 29 29 28 27 28 28 26 26 27 28
58 57 57 56 56 54 53 53 52 49 47 45 43 39 38 38 36 36 35 32 31 31 30 31 32 34 33 32 34 34 33 30 30 30 29 28 27 27 26 25 26 27 27
58 58 58 55 53 53 51 49 47 48 47 44 37 40 39 38 37 38 34 32 30 30 30 30 32 30 32 29 32 34 33 30 29 31 30 28 26 25 23 23 25 26 27
58 57 55 53 51 49 49 49 49 44 40 40 42 41 40 41 41 40 36 33 31 30 30 30 28 28 28 29 30 30 28 31 31 29 28 28 26 24 23 21 23 25 26
56 55 54 51 49 49 48 46 43 43 41 42 41 40 41 41 41 41 37 35 33 31 29 29 27 27 27 25 29 28 26 26 26 28 27 27 28 26 22 21 22 22 24
54 53 51 48 48 47 45 44 42 41 39 39 40 40 40 40 42 39 36 35 33 31 29 29 28 27 28 27 26 27 27 25 25 26 27 27 28 26 22 23 22 22 24
51 49 48 47 46 44 44 42 40 39 39 39 39 38 39 41 39 37 36 34 34 32 30 28 28 28 27 28 27 27 26 23 23 21 22 25 26 24 25 25 23 24 24
48 47 47 44 44 43 42 41 39 39 39 39 39 40 42 39 37 37 35 34 34 32 32 31 29 29 29 28 26 26 25 25 24 23 23 23 24 26 26 26 24 25 25
45 44 43 43 43 42 41 40 39 39 41 41 41 39 39 39 37 36 35 34 34 33 32 31 30 29 28 28 28 24 24 25 24 22 18 15 15 19 24 27 27 27 27
43 42 42 42 41 41 40 39 41 42 40 39 40 40 40 40 38 36 33 32 31 31 30 29 28 28 27 28 27 27 26 25 25 24 19 17 17 19 19 20 22 22 23
42 42 41 40 40 40 41 41 40 39 39 39 37 32 31 31 30 30 31 32 31 30 30 30 30 29 28 28 29 29 28 28 27 23 18 15 19 18 18 19 19 23 22
41 40 40 40 40 40 39 39 38 39 35 31 30 29 29 27 28 29 30 30 30 31 31 31 30 30 30 31 31 30 30 31 29 22 17 16 19 17 20 19 19 21 24
41 41 41 40 40 38 37 34 30 29 30 30 30 29 26 26 25 26 25 24 26 29 30 29 31 32 32 32 33 32 31 29 23 19 18 15 19 20 21 21 20 19 23
40 40 39 35 32 30 26 24 26 27 25 25 24 25 25 24 24 26 25 25 27 28 29 30 32 32 32 32 31 29 28 24 21 20 20 18 19 18 17 19 18 21 22
30 27 26 30 28 25 27 26 23 24 25 24 24 22 23 23 25 26 26 26 25 23 23 25 27 28 32 32 29 27 27 25 24 21 20 18 18 17 15 17 20 19 22

GFSMA_sfc_30mbdewp_063.txt.gz
Dewpoint
52 53 51 49 47 48 45 49 46 44 41 40 37 36 35 37 38 46 52 52 54 51 50 49 47 46 45 43 42 40 39 39 38 38 38 39 39 38 38 38 38 38 37
53 52 51 48 49 50 50 48 46 45 43 38 35 35 36 37 41 41 48 50 51 52 51 49 48 47 46 44 41 38 37 37 36 37 38 39 39 39 39 39 38 39 38
54 53 52 52 52 52 50 48 47 47 43 40 36 36 34 36 37 42 45 49 51 52 49 50 48 46 45 42 41 38 36 36 35 36 37 38 38 38 38 37 37 37 37
56 54 55 54 54 53 50 50 48 47 44 42 38 36 35 35 33 35 44 46 49 48 49 48 48 45 42 40 37 37 35 33 34 35 37 38 38 38 37 37 36 36 36
56 55 54 54 53 52 51 50 48 47 47 45 39 38 36 35 33 33 39 43 46 47 47 47 45 44 41 38 37 32 31 32 33 35 38 37 37 37 36 36 35 35 35
57 55 55 55 54 52 51 50 49 48 49 45 38 38 38 38 35 35 32 35 38 44 45 45 45 41 40 37 34 33 32 33 33 35 36 37 37 36 35 35 35 35 35
56 56 56 56 55 52 52 49 48 47 47 46 43 38 41 40 38 38 36 33 33 34 40 43 40 37 37 38 36 35 35 34 33 35 35 36 35 35 35 34 34 33 33
58 57 56 57 57 55 51 50 49 48 47 47 40 41 39 43 43 41 39 36 35 36 34 35 36 34 35 35 36 37 36 35 35 35 35 35 35 34 34 33 33 32 32
59 59 59 58 58 56 53 51 50 48 46 47 46 42 41 39 41 41 41 40 38 36 36 36 35 34 33 33 37 40 38 37 37 36 34 34 33 32 32 32 32 31 30
59 59 59 59 58 57 55 53 51 50 48 47 49 47 42 39 38 37 40 41 39 39 36 36 35 34 32 35 38 37 39 37 36 35 34 33 32 31 30 30 30 30 29
59 58 58 57 57 57 55 54 53 51 52 51 50 46 44 44 43 39 37 38 39 39 38 37 37 36 35 36 37 39 38 36 36 35 34 32 31 30 30 30 29 29 28
59 58 58 57 57 57 57 55 53 53 52 49 48 46 44 42 41 38 37 37 35 34 33 34 37 38 36 33 37 39 39 36 35 34 32 31 30 29 29 29 29 27 28
58 58 58 57 57 56 54 53 53 52 50 47 46 45 43 41 40 41 39 36 34 33 31 32 33 36 35 34 36 40 39 36 35 33 33 32 30 29 28 27 26 25 26
58 58 58 57 56 54 53 52 50 49 47 46 44 43 41 42 42 40 39 38 33 31 31 30 33 32 32 35 35 40 39 36 33 34 34 31 30 29 28 26 25 23 23
58 57 58 56 54 52 50 49 48 47 46 43 42 42 41 41 42 42 41 40 34 32 30 31 30 30 30 30 33 38 34 36 33 34 34 33 31 29 28 26 25 23 22
59 57 55 52 50 50 49 48 46 44 42 42 42 41 41 41 41 42 42 41 37 34 30 31 30 30 28 27 29 35 32 34 35 34 33 32 32 31 29 26 24 23 22
56 54 52 50 49 48 47 46 44 42 41 41 41 40 40 41 40 41 41 40 36 34 32 32 31 30 28 27 28 34 31 32 32 33 30 31 32 32 29 28 25 24 23
53 51 50 48 48 46 45 43 42 41 40 40 39 40 39 39 41 42 41 38 36 35 33 32 31 30 29 29 29 28 29 27 27 29 34 32 28 27 27 28 28 26 26
49 48 47 46 45 44 43 42 41 41 40 40 39 39 40 42 40 39 38 37 36 35 34 33 32 32 31 31 30 29 28 29 26 27 27 28 28 31 30 29 29 28 28
47 46 45 44 44 43 42 41 40 40 39 40 41 41 40 39 38 38 38 36 35 34 34 33 33 32 31 30 30 28 27 28 27 26 24 22 24 23 25 30 31 31 29
44 44 43 43 43 42 41 40 39 39 41 41 40 40 40 40 40 38 38 36 34 33 32 31 30 30 30 29 28 28 28 29 28 28 27 22 18 17 18 21 24 26 29
42 42 42 42 41 40 40 40 41 41 39 38 38 32 31 30 30 30 28 27 27 27 27 29 29 29 30 30 29 29 31 30 30 30 27 27 18 17 19 19 19 20 25
41 40 40 40 39 39 40 40 39 38 38 31 30 29 26 25 25 26 26 26 25 27 28 28 28 28 29 30 31 31 31 31 31 31 27 28 20 17 19 18 21 24 22
39 39 38 39 39 39 39 38 35 31 29 26 26 26 25 23 23 26 25 25 24 25 25 26 27 28 29 32 32 32 32 31 33 32 28 20 18 16 19 21 24 23 20
40 40 40 34 29 26 25 26 25 24 24 24 22 22 21 23 25 24 23 22 21 22 22 23 24 25 26 27 28 29 30 31 29 26 21 18 19 18 19 19 20 20 22
39 34 32 29 26 26 25 25 24 22 19 18 20 21 22 22 23 22 22 23 23 24 25 25 26 27 27 28 29 31 30 30 29 25 25 19 19 18 16 19 18 19 19

GFSMA_sfc_30mbdewp_066.txt.gz
Dewpoint
52 51 49 46 45 45 48 47 44 42 40 37 37 37 39 47 51 53 54 54 53 51 50 49 48 47 45 44 42 41 40 39 39 39 40 40 40 40 40 40 40 40 40
52 49 47 46 46 46 49 47 45 42 39 35 34 36 37 38 45 50 52 54 54 53 51 50 48 47 46 45 42 39 38 38 37 38 39 39 39 39 39 38 38 38 38
51 50 48 48 48 50 50 48 46 45 41 38 35 34 37 39 40 42 48 50 52 54 53 51 49 48 47 45 43 39 37 36 36 36 38 39 39 39 38 38 37 37 37
52 52 50 50 52 51 50 48 47 47 43 40 37 36 34 36 40 41 43 46 50 52 51 53 49 47 46 43 41 38 37 34 34 35 37 39 39 38 38 37 37 36 36
55 53 54 54 54 52 50 49 48 47 44 43 39 37 36 34 33 38 43 44 48 49 49 50 49 47 45 43 39 37 33 32 33 35 38 37 38 38 37 36 36 35 35
56 55 55 54 53 52 50 50 48 48 48 46 41 38 37 36 34 34 39 43 46 47 47 47 47 46 45 42 38 35 34 34 34 34 36 37 36 36 36 35 35 34 34
57 55 55 55 53 51 51 49 49 48 47 48 42 39 39 40 36 36 34 37 41 43 46 45 45 43 43 43 38 36 35 36 36 35 36 36 35 35 34 34 34 33 33
56 56 55 56 55 53 52 50 49 48 48 47 43 41 37 40 43 40 38 35 35 37 41 43 42 40 36 40 39 38 37 37 37 37 37 36 35 34 33 32 33 33 33
57 56 56 57 56 56 53 51 50 48 47 48 44 42 41 40 41 42 41 39 37 36 36 36 38 37 35 36 38 41 41 40 37 38 38 36 35 34 32 31 31 31 31
58 58 57 57 57 57 55 52 52 50 48 47 50 46 44 41 40 40 41 41 42 38 37 36 36 36 34 34 35 38 40 40 39 39 38 37 35 33 31 31 31 31 31
58 58 58 58 58 58 57 55 52 51 50 49 49 47 46 46 45 43 41 41 39 40 40 39 38 37 36 34 35 38 40 39 39 39 38 37 36 34 32 31 31 31 31
58 58 58 58 58 57 56 55 54 52 51 51 50 47 46 45 44 44 42 41 37 37 35 35 37 38 38 37 37 39 40 39 39 40 38 38 35 34 32 31 30 30 28
56 58 58 57 57 57 56 55 53 52 51 50 49 47 47 46 43 42 40 38 37 35 34 33 34 34 35 37 36 40 42 40 39 39 39 37 35 34 32 31 30 29 27
55 58 58 57 57 56 55 54 53 52 50 48 48 47 46 43 43 42 40 40 38 35 33 32 33 33 32 32 35 37 41 41 39 39 39 37 36 34 32 30 29 28 27
57 57 57 57 56 55 53 52 51 49 48 48 47 45 43 43 43 43 42 40 38 35 35 34 32 32 31 31 31 37 40 40 39 39 38 37 37 35 33 31 30 28 26
58 57 57 56 54 52 51 50 49 47 46 44 44 42 41 42 42 42 42 42 41 38 36 34 32 32 31 30 30 34 37 38 39 38 37 36 37 36 35 33 31 28 26
59 58 56 53 52 50 49 49 47 45 44 43 42 42 41 41 41 41 41 41 40 39 36 35 33 32 31 30 29 31 34 35 35 38 37 36 36 36 35 35 34 31 27
56 55 53 51 50 49 47 46 44 43 42 41 41 41 41 41 39 41 42 41 40 38 36 35 34 32 31 31 31 31 30 31 32 32 36 37 35 35 35 34 34 32 30
52 51 50 49 48 46 45 44 43 42 42 42 41 40 39 41 42 40 38 38 38 38 37 34 34 34 33 32 32 32 31 30 30 30 31 36 35 34 34 33 33 31 30
50 49 48 47 45 44 44 43 42 42 41 40 40 40 41 40 38 37 38 37 35 32 32 32 32 32 32 32 31 30 30 30 29 30 32 33 34 34 33 34 31 31 32
47 46 45 44 44 43 43 42 41 40 39 40 41 40 39 36 32 31 28 25 24 24 25 25 25 27 27 28 29 30 29 30 31 31 30 30 30 31 32 33 33 32 33
44 44 43 43 43 42 41 40 40 40 41 39 38 30 29 26 27 27 27 27 26 23 23 24 24 23 24 27 29 29 30 30 29 31 30 30 32 28 28 29 24 23 22
43 42 42 41 40 40 40 40 40 39 36 30 26 25 24 23 24 25 25 24 23 22 24 23 23 24 24 25 27 25 25 25 27 31 31 29 29 29 27 22 22 22 24
41 41 40 39 39 39 39 38 35 30 26 26 24 22 21 21 25 23 23 21 21 22 22 23 23 24 25 25 24 25 25 26 26 27 32 28 28 29 25 20 22 25 28
39 38 38 36 35 36 35 30 26 25 23 20 20 21 22 21 22 22 22 23 23 24 25 25 27 28 28 28 28 27 24 24 23 24 29 30 27 24 19 19 20 25 24
39 38 33 29 27 27 27 26 23 20 17 16 20 20 20 21 21 23 24 24 23 21 21 24 23 23 24 25 28 26 26 25 26 25 26 27 26 26 20 20 20 20 19

GFSMA_sfc_30mbdewp_069.txt.gz
Dewpoint
51 50 48 45 45 47 46 43 40 39 37 40 43 47 50 51 52 53 54 54 53 51 50 50 49 47 45 44 42 42 41 40 39 40 41 41 40 40 40 40 39 39 39
51 48 46 45 46 48 46 44 41 39 36 36 37 40 45 50 51 53 53 54 53 52 51 49 49 48 46 45 42 40 40 39 38 38 40 40 40 40 39 39 39 38 38
49 47 46 46 47 48 47 46 43 41 37 36 35 38 38 44 47 50 52 53 54 53 52 51 49 48 48 47 43 40 38 38 36 37 39 40 40 39 39 38 38 38 37
50 47 46 47 49 49 48 47 46 43 40 37 35 35 38 38 39 43 48 50 52 53 54 53 52 49 48 46 44 40 39 36 35 36 38 39 39 39 39 38 37 37 36
51 48 48 49 50 50 50 48 47 46 43 40 37 36 36 38 40 40 41 44 48 52 51 52 53 50 48 45 44 39 38 34 34 35 38 38 38 37 36 36 36 36 36
53 51 52 52 52 52 50 49 48 48 45 43 40 37 37 37 36 38 41 42 45 49 50 49 51 49 48 47 43 39 38 36 35 36 37 38 36 35 35 35 35 35 35
55 53 54 54 54 52 50 50 48 47 47 47 43 40 39 38 36 35 36 42 44 46 48 48 48 46 46 47 43 39 38 38 38 37 37 38 37 35 34 33 33 33 33
56 56 55 55 53 52 51 50 49 48 47 48 44 40 37 39 42 39 37 36 40 42 45 46 46 45 43 44 43 41 40 39 39 39 38 39 38 36 34 33 32 32 32
55 55 56 55 55 53 51 51 50 48 47 49 44 43 41 39 41 43 41 38 35 36 38 42 44 43 41 38 41 43 43 42 40 39 40 40 39 37 35 33 32 32 32
54 56 56 56 56 55 54 52 52 50 49 48 49 46 46 44 41 40 42 42 41 39 37 37 38 39 39 38 37 39 40 42 42 40 39 41 40 38 37 34 33 32 33
54 56 57 56 56 56 56 54 52 51 51 49 49 47 46 45 45 44 42 43 43 43 43 40 38 38 37 36 36 36 41 40 42 42 40 41 41 39 38 35 34 33 33
53 56 57 57 57 57 56 55 54 52 51 50 50 48 47 46 45 45 44 43 42 39 37 37 38 39 39 38 37 37 37 39 40 42 42 41 41 40 39 37 35 34 33
52 54 56 57 57 57 57 56 54 53 51 51 50 49 48 48 47 46 44 42 40 37 36 35 35 35 35 37 37 39 40 41 42 42 42 42 41 40 39 37 36 35 33
52 54 57 57 57 57 56 55 54 53 52 51 50 49 48 48 46 44 42 40 39 39 35 35 33 33 33 32 33 34 38 39 41 42 42 42 42 42 41 38 36 35 33
53 55 56 57 57 57 57 56 54 53 51 50 49 49 47 46 45 43 42 41 41 38 36 36 35 34 33 33 32 33 35 37 40 41 41 41 41 42 41 39 37 34 32
55 56 57 57 56 56 54 53 52 50 49 48 47 46 45 44 43 43 43 42 41 39 37 37 36 35 33 32 32 33 33 37 39 40 40 40 40 40 40 40 38 35 32
57 57 57 57 56 54 53 51 50 48 47 46 45 45 43 42 42 42 42 41 41 40 38 38 36 35 33 32 32 32 32 33 36 38 40 40 39 39 39 39 38 35 34
58 58 57 56 53 52 51 50 48 46 46 45 44 42 41 42 41 41 42 41 41 40 38 36 36 34 32 33 33 32 33 32 32 33 35 38 39 39 37 37 36 36 34
56 56 55 53 51 50 48 47 46 45 44 43 42 42 42 41 40 42 40 38 37 37 36 34 32 34 33 33 32 32 32 33 32 33 33 34 36 38 38 37 36 35 36
54 52 52 51 50 47 46 45 45 43 43 42 42 41 41 41 41 38 37 35 30 27 27 25 25 26 29 29 29 28 26 28 30 31 31 31 33 35 37 37 36 36 36
51 50 48 47 46 45 44 44 43 42 41 41 41 41 38 35 32 31 27 25 23 22 22 19 18 21 19 21 20 24 27 26 26 30 31 31 32 32 33 36 37 37 36
48 47 46 45 44 44 43 42 41 41 40 41 39 31 30 29 28 27 26 26 24 20 16 18 18 17 19 21 24 25 24 23 21 23 28 25 30 31 31 33 33 35 35
45 45 44 43 42 42 41 40 41 41 39 35 29 27 23 25 25 24 23 21 20 22 23 22 21 22 22 23 24 24 24 24 23 24 25 24 24 26 31 31 32 34 35
43 42 42 42 41 40 40 39 37 31 28 26 24 22 21 23 23 22 21 21 22 23 23 24 24 24 25 26 26 25 27 27 26 24 26 24 25 25 27 30 32 35 31
42 41 41 40 39 38 37 33 29 26 23 20 21 21 21 20 22 23 23 22 22 22 22 21 23 23 22 24 24 24 25 25 22 23 25 25 23 27 28 28 29 28 28
40 37 35 36 36 34 31 29 26 22 19 18 20 19 20 21 22 24 23 21 21 20 20 21 19 21 22 24 24 24 25 25 24 23 24 25 25 26 25 27 25 22 27

GFSMA_sfc_30mbdewp_072.txt.gz
Dewpoint
50 48 46 45 45 45 41 39 42 46 47 48 49 50 51 52 52 53 54 54 53 51 51 51 49 47 46 44 44 43 41 41 41 42 42 41 42 41 41 41 40 40 39
49 46 44 46 46 44 42 40 38 43 44 45 47 49 50 51 52 53 53 54 53 53 51 50 50 48 46 44 43 42 41 40 39 40 41 41 41 40 40 40 39 39 38
48 46 45 46 47 46 44 41 39 37 37 38 42 46 48 50 51 52 53 53 54 53 52 51 50 49 48 47 43 41 40 39 38 38 40 40 40 40 39 39 38 38 38
48 46 46 47 48 48 46 43 40 38 36 36 36 38 43 47 49 51 52 53 53 53 53 53 52 50 49 49 47 43 40 39 37 37 40 40 40 40 39 38 38 37 37
48 46 46 47 49 50 48 45 44 42 39 37 35 36 38 39 41 42 48 50 52 53 53 54 53 53 52 49 46 44 41 39 37 37 40 39 39 38 36 35 35 36 36
48 48 48 49 50 50 49 48 46 47 44 41 38 36 36 37 38 40 41 43 47 51 52 51 54 53 51 50 46 43 41 39 37 38 40 39 38 37 35 34 34 33 34
49 49 50 50 52 50 49 49 48 47 47 45 42 40 39 38 37 36 37 42 43 45 49 50 50 50 49 50 48 44 41 41 40 39 39 40 39 38 36 34 33 33 33
53 52 52 53 53 52 51 50 48 47 47 46 44 41 40 39 40 38 36 36 40 44 46 48 48 48 47 47 48 46 42 42 41 41 41 40 40 40 37 35 34 33 33
55 55 55 54 54 53 52 50 49 48 47 48 46 44 41 40 40 43 41 38 37 40 43 46 46 46 46 44 45 47 46 45 44 40 41 41 41 42 39 37 35 34 34
55 55 55 55 55 54 52 52 51 49 49 47 49 47 46 45 42 44 43 42 41 37 38 39 40 43 44 43 41 41 42 43 44 44 40 39 42 43 41 40 37 35 35
52 53 55 55 56 55 55 53 52 51 50 49 49 47 46 46 45 45 44 45 44 44 42 40 41 39 39 39 39 38 39 40 40 43 43 40 39 43 43 42 40 37 36
50 52 53 55 56 56 56 55 55 53 52 51 50 48 47 47 45 45 44 45 44 44 41 41 41 40 40 39 38 38 38 38 39 41 43 43 42 41 43 43 42 40 38
49 51 53 54 55 56 56 56 55 54 52 51 50 49 48 48 48 47 47 45 44 42 37 36 36 37 36 37 37 37 38 39 40 42 43 43 44 44 42 41 41 41 39
49 50 52 55 55 56 56 55 55 54 54 53 52 50 50 49 48 48 47 45 41 39 38 39 35 34 34 34 34 36 37 36 37 38 41 43 44 44 43 42 39 38 38
52 52 52 53 55 56 56 55 55 55 53 52 51 50 49 49 48 46 44 42 42 40 39 37 35 36 35 35 34 34 34 34 35 37 40 41 42 43 43 43 42 41 38
53 53 53 54 55 56 56 56 56 55 53 51 50 49 48 46 46 44 43 42 41 40 38 38 36 36 37 35 34 34 34 35 36 37 37 39 40 41 42 42 41 41 39
53 54 54 55 56 56 55 54 54 52 51 49 48 48 47 45 44 43 42 42 41 41 39 39 38 36 35 34 34 34 34 33 34 34 36 37 38 39 39 40 40 41 41
55 55 55 56 56 56 53 53 51 50 50 48 47 46 45 43 42 42 42 41 41 40 39 37 36 35 34 33 33 30 29 31 32 32 34 34 35 36 37 38 39 39 39
55 55 56 56 55 54 53 52 51 49 48 48 46 44 43 42 41 42 42 41 38 37 36 35 31 32 30 31 28 26 28 27 28 25 28 29 29 30 32 35 37 38 38
56 56 55 54 53 52 51 50 48 47 46 45 44 43 42 42 41 41 38 37 32 28 26 24 23 24 26 25 24 19 19 24 25 25 25 27 30 31 32 32 34 35 37
56 56 54 53 52 50 49 48 46 45 44 43 43 42 41 40 39 37 33 27 25 23 21 18 16 18 13 16 19 22 23 24 25 25 24 26 28 26 25 27 29 30 33
55 53 51 50 48 47 45 45 44 43 43 42 37 33 33 31 30 28 27 25 21 17 13 12 14 14 17 21 23 23 23 22 20 24 24 24 26 25 26 26 27 31 34
50 49 47 47 45 44 43 43 42 42 41 35 31 28 26 28 27 24 22 21 22 23 22 21 19 21 22 23 24 22 22 22 23 24 25 24 24 24 25 26 28 30 33
48 47 45 44 43 41 41 40 38 35 32 30 28 25 26 24 23 21 18 20 22 22 24 24 24 23 24 25 25 23 23 23 23 24 27 23 24 24 25 26 29 30 32
44 43 43 42 40 38 37 35 32 29 26 23 23 23 22 22 23 23 21 19 21 22 20 20 21 19 20 22 23 24 23 23 21 21 24 24 23 24 25 26 28 30 32
41 40 39 39 37 34 33 31 28 25 22 21 21 21 21 21 23 25 22 20 18 19 18 16 16 17 19 21 20 20 23 21 20 20 23 23 23 25 23 26 26 28 27

GFSMA_sfc_30mbdewp_075.txt.gz
Dewpoint
50 49 48 47 47 51 53 52 51 51 50 50 50 51 51 51 52 51 51 54 54 52 51 51 50 48 47 45 44 44 43 43 43 43 43 43 43 42 42 41 41 40 40
47 46 47 46 45 46 48 50 50 50 49 48 50 50 50 50 51 52 51 52 53 53 53 51 49 48 46 45 44 43 42 41 42 42 42 42 42 41 41 40 40 39 39
45 46 47 46 46 44 45 46 49 49 48 47 48 50 50 51 51 52 52 51 52 53 53 52 50 49 48 46 44 43 42 40 40 41 42 42 42 41 40 39 39 38 38
46 48 48 48 48 46 44 43 44 44 44 44 46 47 48 50 51 52 52 52 51 50 53 54 52 50 49 49 46 44 42 41 39 40 41 41 41 41 39 38 37 37 37
48 48 49 50 51 49 47 42 41 40 39 39 40 41 44 47 50 50 51 53 53 52 50 52 53 53 52 51 50 47 43 42 40 39 41 41 41 39 37 36 36 36 35
49 48 50 50 51 49 48 46 44 45 41 39 34 37 40 41 43 44 47 50 52 53 53 52 51 51 53 53 49 46 45 43 41 40 41 41 41 39 37 36 35 34 34
49 48 49 50 52 50 49 50 49 48 47 45 41 41 40 41 41 40 42 42 45 49 52 53 53 52 51 53 51 47 44 43 43 41 41 42 42 40 39 37 35 34 34
49 49 50 52 52 52 52 51 50 50 50 47 45 44 44 44 41 41 39 40 43 43 46 49 51 51 51 50 50 49 46 43 43 43 42 42 42 42 41 39 37 35 35
50 51 52 54 54 54 53 53 51 50 49 49 48 47 44 43 43 44 44 40 38 41 42 46 48 50 50 48 48 49 49 49 47 44 43 44 44 43 43 42 40 38 36
52 51 54 54 55 56 55 54 53 51 51 49 50 50 49 47 46 45 45 44 45 44 41 42 44 46 47 47 46 45 44 44 44 46 45 44 42 42 45 45 43 41 39
52 53 55 55 56 56 56 55 54 53 53 51 50 49 48 47 48 47 46 48 46 45 44 42 41 41 42 43 43 43 42 41 41 42 42 42 42 42 41 45 46 44 43
54 55 55 56 56 57 57 56 56 55 54 52 53 52 50 50 48 47 47 47 47 47 46 46 45 44 42 41 40 39 39 38 39 41 43 43 43 42 42 41 42 45 45
51 52 53 54 55 56 57 57 57 56 55 55 54 53 52 52 51 48 47 47 47 45 43 39 40 41 41 42 40 40 39 39 38 39 40 43 43 43 43 42 42 41 42
50 51 53 53 54 55 56 56 56 57 56 56 55 54 53 52 51 49 48 47 43 43 41 41 39 38 37 38 37 35 37 37 36 37 37 39 41 42 44 43 42 41 39
51 51 52 52 53 54 55 56 56 56 56 56 56 56 53 52 50 50 49 48 47 43 43 42 41 38 39 40 38 39 38 36 36 36 36 38 39 40 41 41 41 42 41
51 51 51 52 52 53 55 56 56 56 56 54 54 53 51 49 49 48 47 46 45 45 43 43 39 39 40 37 37 38 37 35 35 34 34 35 36 37 38 38 38 39 39
52 52 52 53 53 54 55 56 56 56 55 55 52 52 50 48 47 47 45 44 43 42 42 41 39 40 39 39 37 35 33 31 30 31 32 33 35 36 36 37 37 37 37
51 52 52 52 54 55 56 56 55 55 54 52 50 49 49 47 46 45 44 43 43 42 40 39 39 39 36 36 33 31 26 20 19 18 27 29 29 30 30 31 32 33 34
52 53 53 54 54 55 56 56 55 53 52 51 50 49 48 46 44 44 43 42 41 40 39 38 36 36 32 31 27 20 18 19 20 21 22 23 25 27 28 30 30 28 28
52 52 53 53 54 55 55 54 52 51 51 50 49 48 47 46 44 43 42 40 37 35 32 30 28 28 27 24 17 15 14 19 20 20 21 24 26 27 27 27 27 27 27
52 52 53 54 55 55 53 52 52 50 48 46 45 45 44 44 43 42 39 35 32 29 27 25 24 22 17 10 13 17 20 18 18 22 22 22 21 23 25 26 25 25 26
52 53 54 54 53 53 51 51 50 48 46 44 41 39 39 38 36 34 31 28 27 25 22 20 17 12 10 17 19 20 19 18 14 20 20 20 22 22 23 24 24 27 28
54 54 54 54 52 50 48 48 46 45 44 40 37 34 31 31 29 27 24 23 22 20 20 17 14 15 18 19 21 20 19 20 19 20 20 20 22 22 23 23 26 28 29
55 52 51 50 48 46 44 43 43 41 37 35 33 32 30 28 25 21 19 20 20 21 22 21 21 19 21 21 21 19 20 20 20 19 19 18 20 20 23 24 26 28 30
49 47 46 45 44 41 40 39 37 34 31 30 29 28 25 24 26 22 19 18 18 20 19 20 19 18 19 21 21 20 17 15 17 14 16 19 20 20 22 23 25 27 29
45 43 42 41 40 36 35 34 33 30 28 26 25 25 24 24 25 23 20 18 15 16 15 13 13 14 16 16 18 17 17 17 15 14 18 21 17 19 21 21 25 24 26

GFSMA_sfc_30mbdewp_078.txt.gz
Dewpoint
54 55 58 57 55 54 53 51 50 50 48 48 48 48 48 48 49 48 51 54 54 53 52 51 50 48 47 47 46 46 45 45 45 44 44 44 43 43 42 42 41 41 41
51 52 52 53 56 56 53 51 50 46 44 45 46 47 47 49 49 49 49 52 53 53 52 51 50 49 47 46 45 44 44 44 44 43 43 44 43 42 41 41 40 39 40
51 49 48 49 51 52 51 50 49 46 44 44 45 47 47 48 49 50 49 49 52 54 53 52 51 49 47 47 45 44 43 42 43 43 43 43 43 42 41 39 39 38 39
49 47 46 47 48 50 50 50 48 46 45 43 43 45 45 47 48 50 49 49 49 49 53 53 52 51 49 47 46 45 44 42 41 42 43 42 42 42 40 39 38 37 37
49 46 46 47 47 45 46 46 45 44 42 41 42 43 44 45 48 48 48 50 50 49 49 53 54 53 52 50 49 47 45 44 42 41 43 42 43 42 39 38 37 37 36
48 45 44 47 45 43 43 41 42 41 40 39 36 39 42 43 44 46 47 48 49 51 50 49 51 51 53 53 52 51 49 46 44 42 42 43 43 42 40 38 37 36 35
47 49 51 50 47 47 46 46 44 45 43 42 38 40 40 42 42 42 44 46 47 49 50 50 50 50 52 53 53 51 48 47 46 44 43 44 44 43 42 40 39 37 35
51 52 51 51 51 52 50 50 48 48 49 46 44 45 44 43 41 41 40 41 44 44 48 50 53 52 52 50 50 53 49 47 45 45 44 44 44 44 44 43 41 39 37
49 51 52 52 53 53 52 52 51 50 49 51 50 47 46 45 46 46 44 43 42 44 44 42 44 51 52 52 51 51 51 51 50 48 46 46 46 46 45 46 45 43 41
50 51 52 53 53 52 52 53 52 52 50 50 50 49 53 51 48 48 48 46 44 42 43 42 46 47 49 50 50 49 48 48 47 48 47 46 45 45 45 46 48 47 45
52 51 52 52 51 54 53 54 54 54 53 51 52 51 51 51 49 47 47 49 48 46 46 46 43 42 46 46 46 48 47 45 44 43 43 43 43 43 43 44 44 45 48
51 50 51 54 53 55 54 56 57 56 55 54 54 53 50 50 49 50 49 49 50 49 50 49 49 46 43 43 44 43 43 42 40 41 44 43 42 41 41 41 42 43 44
50 50 52 52 54 55 55 55 55 56 56 55 55 54 54 53 52 53 52 50 49 50 47 48 48 47 45 44 43 41 40 40 40 40 41 41 41 41 41 41 41 41 41
50 51 53 52 53 52 53 53 54 54 55 55 55 55 54 54 54 54 51 49 46 48 47 47 45 43 42 42 40 39 38 36 35 35 36 38 39 41 41 41 41 41 41
51 52 53 53 53 53 52 53 53 53 54 55 55 56 56 56 57 56 53 51 48 44 45 46 44 43 41 40 39 38 40 37 35 36 36 36 37 37 38 38 38 39 39
51 52 52 53 52 52 52 51 51 52 52 54 57 57 56 56 55 53 52 51 50 48 46 46 45 43 42 41 39 40 41 36 36 34 33 33 32 32 33 33 32 32 33
51 50 51 51 50 50 50 51 51 52 52 54 57 56 55 54 52 52 50 50 49 49 47 44 44 43 42 41 38 39 39 37 35 32 30 27 30 31 30 30 31 29 29
52 51 50 49 50 50 50 51 52 54 55 55 55 54 54 53 51 50 49 49 47 46 45 44 42 41 41 42 39 39 36 29 25 17 23 25 27 28 29 30 30 31 31
51 51 51 51 50 50 50 51 54 55 54 52 54 54 52 50 50 49 48 48 46 44 44 44 40 39 38 37 35 34 28 21 18 17 20 23 25 27 27 29 30 29 30
49 49 51 51 51 51 50 53 54 55 55 55 54 52 52 50 50 47 46 46 44 43 40 39 37 35 33 33 29 23 17 16 17 16 16 19 23 24 27 28 29 29 28
50 50 51 51 52 52 52 53 54 54 54 54 52 51 51 50 48 47 45 43 40 39 37 36 32 29 28 26 20 14 15 16 17 18 20 21 19 20 22 24 24 27 28
51 51 51 52 52 52 53 53 54 54 54 52 48 46 46 45 44 43 42 41 39 35 33 32 29 25 24 18 15 17 17 15 15 17 21 19 20 20 20 21 21 24 27
51 51 52 52 51 52 53 51 52 54 52 49 44 41 39 38 38 34 31 28 26 25 27 24 23 20 16 16 19 19 18 19 19 18 18 19 21 20 20 18 23 27 28
51 52 52 51 51 53 52 50 49 50 46 43 40 38 35 32 29 26 26 25 23 21 20 20 19 19 19 19 20 19 18 18 19 18 17 17 17 17 20 21 23 25 29
53 53 54 54 54 51 47 44 44 40 37 35 34 33 32 30 30 30 27 22 21 22 22 21 20 19 18 19 20 17 17 15 17 13 14 14 18 17 15 17 21 25 25
53 49 46 46 45 43 40 40 39 34 31 30 30 30 31 29 29 28 23 20 19 17 14 13 15 16 16 17 18 15 13 15 15 14 15 18 16 13 16 18 20 22 22

GFSMA_sfc_30mbdewp_081.txt.gz
Dewpoint
60 59 57 58 53 51 51 48 48 47 47 47 47 48 47 47 47 49 52 54 54 53 52 51 51 50 49 49 48 47 47 47 46 46 45 45 44 43 43 42 42 42 42
59 58 58 55 53 52 50 48 49 48 47 47 47 47 47 48 48 49 51 53 54 54 53 51 50 49 48 47 47 46 46 46 45 45 45 44 44 43 42 41 40 40 41
59 58 57 55 56 54 53 53 49 46 44 45 46 47 48 49 48 49 49 51 52 54 54 53 51 50 48 47 46 45 45 44 45 44 45 44 43 42 41 40 39 38 39
54 54 56 56 56 55 53 51 48 45 43 43 45 46 47 48 49 49 48 50 50 50 53 53 52 51 49 48 47 46 44 43 44 44 44 44 44 43 41 39 39 37 38
53 53 52 53 54 52 53 52 49 47 44 43 44 44 45 46 48 48 48 49 49 49 51 53 53 53 51 49 48 47 46 45 43 43 44 44 44 43 42 40 39 38 37
53 51 50 51 50 50 49 49 47 46 45 42 40 42 44 45 46 46 47 48 49 49 50 52 53 52 53 53 51 50 49 47 46 44 44 45 44 44 43 41 40 39 38
49 48 48 47 46 45 46 48 47 45 43 42 37 40 42 43 44 45 47 47 48 50 50 50 52 51 51 53 54 52 53 51 48 47 45 45 46 45 45 43 42 41 39
45 46 47 50 46 46 47 47 47 47 44 45 41 42 42 42 43 44 44 46 48 47 48 50 51 51 51 51 53 54 52 50 49 49 48 47 46 46 46 45 44 43 42
49 49 52 51 50 51 51 52 51 49 48 48 49 49 48 47 47 45 45 44 45 46 45 49 50 50 52 50 51 52 53 53 52 49 48 49 49 48 47 47 47 47 46
52 53 53 54 54 54 53 53 52 51 51 51 49 50 51 52 49 48 49 49 46 45 46 45 43 45 48 51 51 51 52 52 52 52 51 49 48 47 47 47 47 48 49
50 51 53 54 54 54 54 54 52 53 53 52 52 51 51 52 53 49 47 50 49 48 46 46 43 45 47 47 49 50 50 49 49 48 48 47 46 44 44 44 45 45 46
51 52 52 54 54 53 55 55 55 55 55 54 54 53 52 50 50 49 48 48 50 51 50 49 49 48 47 47 46 46 48 47 46 45 46 44 44 43 42 42 41 41 42
51 52 52 53 53 54 54 56 55 55 56 56 53 53 52 52 50 51 51 51 51 53 52 54 55 52 50 49 46 44 44 43 43 42 44 43 42 41 41 41 41 41 41
49 50 51 50 52 53 53 55 55 54 57 56 56 54 52 53 53 53 52 52 50 50 52 51 51 50 49 47 46 44 43 41 41 41 40 39 40 41 41 41 41 41 41
50 49 50 51 51 52 53 54 54 53 55 54 55 56 54 54 54 54 54 54 52 49 47 48 48 48 47 45 43 42 43 40 38 35 36 37 37 37 37 37 37 37 36
52 50 52 51 52 51 51 52 52 53 54 54 56 55 55 55 55 56 56 55 53 50 48 48 49 48 47 42 41 41 42 39 37 36 35 33 32 31 32 32 31 30 30
54 52 52 52 52 52 52 52 52 53 53 53 54 54 55 56 56 56 56 54 52 51 49 49 50 47 45 44 41 41 43 42 41 37 34 32 28 27 28 29 29 30 29
54 53 53 53 52 52 53 53 53 52 52 52 52 53 56 56 56 56 54 52 51 51 50 49 46 45 45 45 42 41 40 39 37 37 32 25 23 24 26 29 30 30 31
54 54 53 52 51 52 53 53 53 52 52 52 53 54 55 55 54 54 52 51 51 51 50 49 46 43 43 43 42 39 37 36 30 27 21 19 20 24 27 29 29 30 31
54 53 53 52 52 52 52 51 51 52 52 52 54 55 54 53 54 52 50 50 50 49 48 48 44 42 39 38 37 36 34 28 23 18 14 14 19 26 29 27 29 30 31
54 54 53 53 53 52 52 52 51 51 51 53 54 55 55 55 53 52 50 49 47 46 44 43 38 38 35 33 31 29 25 19 20 21 20 20 23 25 25 28 30 30 33
53 53 52 52 52 52 51 50 51 52 52 54 54 54 54 52 51 50 48 48 47 44 42 39 38 36 34 32 27 21 18 18 19 21 21 22 23 22 22 23 22 21 23
53 52 52 52 52 52 51 50 49 52 54 54 53 53 49 47 46 42 37 35 37 37 38 37 34 32 30 26 20 20 22 21 21 20 20 21 23 23 25 21 21 23 25
53 53 53 53 53 53 51 51 50 52 53 53 53 49 45 41 38 37 34 31 30 30 30 32 32 30 27 25 24 22 22 20 21 20 20 20 22 23 25 23 23 24 25
53 53 54 53 53 53 49 49 50 50 46 42 40 39 38 34 33 32 31 30 29 28 29 29 27 24 22 20 20 19 18 18 22 19 20 20 19 20 24 22 21 21 26
53 53 53 51 48 51 46 46 46 41 37 33 33 33 33 32 32 32 30 28 27 25 21 15 12 12 13 16 16 16 14 15 17 17 19 19 20 19 17 20 22 23 22

GFSMA_sfc_30mbdewp_084.txt.gz
Dewpoint
61 62 62 61 57 53 52 51 50 49 49 47 51 50 50 51 52 53 55 55 54 53 52 52 51 51 50 49 49 48 48 48 47 47 46 46 45 44 43 43 43 43 43
60 61 61 60 53 51 50 49 51 50 49 49 50 50 50 51 52 53 54 55 54 53 53 52 51 51 50 49 48 48 48 47 47 47 46 45 44 43 42 41 41 42 42
60 60 59 57 53 52 50 52 51 50 50 49 50 50 50 51 52 52 53 54 54 54 53 52 51 50 50 49 48 47 47 47 46 46 46 45 44 43 41 41 39 39 40
59 58 57 57 57 56 53 52 50 49 49 49 49 49 50 51 52 52 52 53 53 53 54 53 52 51 49 48 47 47 46 46 46 46 46 46 45 43 42 40 39 38 38
57 56 57 58 58 56 54 51 49 48 46 48 48 49 50 51 51 51 51 51 52 52 53 54 53 53 52 50 48 48 47 45 45 46 46 45 46 45 43 42 41 40 39
57 56 56 56 55 54 53 51 48 49 47 46 44 46 49 51 50 50 51 52 52 52 52 52 53 53 52 52 51 49 49 48 46 46 46 46 45 45 45 43 42 41 40
54 55 55 55 54 52 51 49 47 46 44 45 45 46 46 48 49 50 50 50 51 51 53 53 53 52 53 53 53 51 51 50 49 48 46 46 47 46 46 46 44 43 43
53 53 53 53 52 51 50 50 47 47 46 47 44 44 42 43 45 48 49 50 50 51 51 53 53 52 52 52 53 54 53 53 52 50 49 49 48 48 47 47 47 46 45
51 49 50 48 49 48 48 50 49 46 46 47 47 47 45 43 44 46 46 47 48 50 50 51 52 53 53 52 52 53 54 54 54 53 52 52 51 49 49 49 49 48 48
50 47 48 48 51 50 51 49 51 50 51 47 50 52 52 52 48 47 48 46 47 48 48 47 50 51 51 53 52 53 53 53 53 54 53 51 50 51 50 50 50 50 50
51 51 50 52 51 54 54 53 53 52 53 53 49 49 50 53 53 50 48 50 50 47 46 47 47 46 45 47 51 52 51 52 52 52 53 52 51 50 49 47 46 46 46
51 51 54 55 55 55 54 54 54 54 53 53 54 53 51 51 52 51 50 49 50 50 49 47 48 46 45 48 49 49 51 50 50 51 52 51 50 49 47 46 45 44 43
49 51 53 54 54 54 55 55 55 54 55 52 53 52 53 53 52 52 51 50 50 52 52 52 50 48 47 49 48 47 47 49 49 48 48 48 47 46 44 43 42 42 42
48 50 52 53 53 54 54 55 54 53 52 54 54 53 52 53 53 52 51 51 51 51 53 51 54 54 54 52 52 48 47 46 47 46 45 45 44 43 42 42 41 41 41
48 49 52 52 51 52 53 53 54 52 53 53 53 53 53 53 54 54 54 53 52 49 48 50 52 52 53 51 49 46 45 44 43 43 42 42 40 41 40 40 39 39 38
48 49 51 51 52 52 52 52 52 53 53 55 55 54 54 54 55 55 54 54 54 51 50 50 50 50 49 48 47 46 45 43 41 40 38 38 38 37 35 35 35 33 31
50 49 50 50 50 50 50 51 51 50 52 53 54 54 54 56 55 55 56 55 55 54 51 51 50 51 50 47 41 42 42 42 40 38 36 36 34 31 30 29 29 30 30
50 50 49 49 49 50 51 51 50 49 49 51 53 54 55 55 55 55 56 55 55 54 52 50 51 50 48 46 42 41 44 42 42 38 38 36 33 29 26 24 26 29 30
53 51 50 50 50 50 50 50 50 50 51 50 51 53 53 53 54 56 56 55 54 53 52 51 50 48 48 47 43 42 42 41 32 39 37 33 28 24 24 25 27 29 30
56 55 54 53 52 52 52 51 51 52 52 52 52 53 53 53 54 55 55 54 53 51 50 50 49 45 44 42 44 41 38 37 34 29 26 23 25 24 24 25 27 28 30
56 55 54 53 53 53 52 52 51 51 52 52 53 53 53 53 55 55 54 53 52 50 49 48 46 42 41 40 41 39 39 36 32 28 23 22 22 22 26 30 29 31 32
55 55 54 54 53 52 51 50 51 52 52 51 51 52 53 53 53 52 52 52 52 50 48 47 46 43 42 40 39 36 32 29 25 25 22 22 23 26 27 28 26 29 30
55 54 54 53 53 53 51 50 49 51 52 52 52 52 53 53 52 51 47 46 42 41 43 46 45 40 36 34 33 32 31 29 28 26 24 23 27 25 26 24 24 27 26
54 54 54 54 54 53 52 50 49 50 51 52 52 53 53 50 49 47 42 38 34 33 34 35 35 33 34 35 33 32 32 31 29 28 25 20 22 21 24 27 23 25 26
54 53 53 53 53 53 51 50 48 50 51 49 46 45 47 43 39 39 35 32 30 29 31 32 31 31 31 31 31 32 29 27 24 21 23 23 22 22 22 22 25 20 22
54 54 54 52 50 53 48 47 47 48 44 38 34 33 34 34 34 34 33 31 27 26 26 26 26 26 28 26 23 25 23 21 21 18 19 20 22 21 18 21 22 22 20

GFSMA_sfc_30mbdewp_087.txt.gz
Dewpoint
61 61 62 61 59 58 56 54 51 49 49 50 50 52 53 53 54 55 55 55 55 54 53 53 52 52 51 51 51 51 49 49 49 48 47 47 46 45 45 45 45 45 45
61 60 61 60 56 55 53 51 51 48 47 48 50 52 53 53 54 55 55 55 55 54 53 53 52 52 51 50 50 50 49 48 48 47 47 45 45 44 43 43 44 44 41
61 60 61 58 54 52 50 50 50 49 48 48 50 51 52 53 53 54 54 54 54 54 54 53 52 52 51 50 50 50 49 48 48 47 46 45 44 43 42 41 41 41 40
60 61 60 58 53 52 47 51 51 49 49 49 49 51 52 52 53 53 53 54 54 53 53 54 53 52 51 50 50 49 49 48 48 48 47 46 45 43 42 41 40 39 40
60 60 59 57 54 53 50 52 50 50 49 49 49 50 52 52 52 52 53 53 53 53 53 54 53 53 52 51 50 49 49 48 48 47 47 47 46 45 44 42 41 40 39
60 59 58 58 57 55 53 50 49 49 49 48 47 49 50 52 52 52 52 52 53 53 53 53 54 53 52 52 51 49 49 48 48 48 47 47 47 47 46 45 43 43 42
58 57 57 56 55 53 51 49 48 47 48 47 47 48 49 50 50 51 52 52 52 52 53 53 53 52 53 53 53 51 51 51 49 48 48 48 48 47 47 46 46 45 44
57 56 56 56 55 52 50 48 46 46 46 47 46 45 44 46 48 50 51 51 52 52 52 52 52 52 52 52 52 53 52 52 51 51 50 49 49 49 48 48 48 47 47
57 56 56 56 55 52 49 47 46 45 44 47 47 45 43 42 44 46 48 50 50 51 52 53 53 52 52 52 52 53 53 54 55 54 54 53 51 51 50 50 49 49 49
54 54 53 53 52 52 49 49 48 47 46 44 50 52 51 49 43 44 47 46 48 49 50 51 52 53 53 52 52 52 53 53 53 55 56 55 54 53 52 51 51 51 50
50 51 51 50 50 51 50 49 50 49 49 47 46 49 50 52 52 49 45 46 49 48 48 49 50 52 52 53 53 52 52 52 52 53 54 55 54 53 53 53 52 52 51
50 49 49 48 51 51 52 50 51 50 52 51 50 50 49 49 51 51 49 49 47 49 48 47 48 48 48 48 49 51 52 52 52 52 53 54 55 53 53 52 50 49 47
49 50 51 49 51 53 54 53 53 53 53 54 53 52 52 51 52 51 50 49 49 50 51 50 48 47 47 47 47 47 50 51 51 51 52 53 54 54 52 50 49 47 45
48 51 53 54 53 54 55 55 54 54 55 54 54 54 53 52 54 53 51 50 49 50 51 51 52 50 48 47 48 47 48 48 49 50 50 51 51 50 48 47 46 44 43
48 50 52 54 54 54 54 55 54 53 54 53 53 53 53 53 53 53 53 52 51 47 47 51 52 53 52 52 51 50 49 48 47 48 49 48 47 46 45 44 43 43 42
48 48 51 52 53 53 53 53 54 54 53 53 54 53 52 53 54 54 54 54 53 51 49 49 50 52 53 54 54 52 49 47 46 46 46 45 44 44 43 42 42 41 40
49 48 49 51 51 51 52 52 51 52 53 52 52 53 52 52 52 54 55 54 54 54 51 50 51 51 51 50 49 48 47 46 44 43 43 42 41 40 40 39 38 37 35
49 48 49 50 51 51 51 51 50 50 51 52 52 53 53 54 53 53 53 53 53 53 52 50 51 51 51 51 50 46 46 45 43 42 41 39 37 37 36 34 32 29 30
50 49 49 49 48 49 49 50 50 50 50 50 51 52 52 53 53 53 54 53 54 54 54 52 51 51 51 49 46 43 43 42 42 40 39 37 37 36 33 31 28 27 27
52 50 49 49 48 47 48 49 49 50 50 50 49 50 51 53 53 53 54 54 54 54 53 52 52 51 48 47 47 45 41 41 39 40 39 38 37 35 33 28 27 27 28
54 52 50 49 48 47 46 47 49 49 50 49 49 50 51 52 52 53 53 54 54 54 52 51 50 49 46 42 45 45 44 42 38 35 34 34 34 32 31 32 28 29 31
56 55 53 52 50 49 48 48 48 49 49 49 50 51 52 51 51 51 52 53 54 53 52 51 50 48 45 46 47 44 42 36 36 36 35 34 34 31 28 28 29 30 30
54 56 56 55 54 53 51 49 49 51 51 51 51 51 52 52 51 51 49 49 45 43 42 50 49 49 47 44 39 35 34 33 32 34 33 31 34 33 32 28 26 26 28
55 54 55 55 55 55 53 51 49 50 52 52 52 52 52 51 50 50 48 42 35 33 34 36 37 34 35 36 35 34 33 32 32 33 34 29 31 30 27 28 27 27 27
54 55 55 55 54 54 52 51 49 50 50 51 49 47 51 50 48 47 43 35 31 29 33 33 33 33 33 33 34 32 30 30 28 29 32 30 29 28 27 25 26 27 26
53 54 54 55 55 54 53 51 49 52 50 44 38 38 40 43 40 40 39 33 29 27 28 28 27 28 29 30 31 31 31 28 28 26 25 24 23 21 20 24 24 21 21

GFSMA_sfc_30mbdewp_090.txt.gz
Dewpoint
61 62 62 61 60 59 57 55 53 51 49 51 52 53 53 53 54 55 55 53 55 55 54 54 53 53 53 52 52 52 51 50 50 50 49 48 48 48 47 46 47 47 44
61 61 61 60 59 57 56 53 51 50 49 51 52 53 53 54 55 55 55 55 55 55 54 54 53 53 52 52 52 51 50 50 49 48 48 47 46 46 46 45 45 44 42
61 61 60 59 57 56 54 52 51 49 48 50 52 53 53 54 54 54 55 55 55 55 55 54 53 52 52 51 51 51 50 49 49 48 47 46 45 44 43 44 44 43 40
61 61 60 58 55 53 51 50 50 48 48 50 52 52 52 53 54 54 54 54 54 54 54 54 54 53 52 51 51 51 50 49 49 48 47 46 45 44 43 42 42 42 41
60 61 60 57 53 51 49 50 50 47 47 50 51 52 52 53 53 53 53 53 53 53 54 55 54 54 53 52 51 51 51 50 49 49 48 47 46 45 43 43 42 40 40
61 60 60 57 54 50 49 52 50 49 49 49 51 51 52 52 52 52 52 53 53 53 53 54 54 53 53 53 52 51 51 51 50 50 49 49 48 46 45 44 43 43 42
61 60 59 57 54 47 50 52 50 48 49 49 50 50 52 52 52 52 52 52 52 53 53 53 53 52 53 53 53 51 51 51 50 50 50 49 49 49 48 47 46 45 45
60 60 58 57 56 49 52 50 49 48 48 49 48 47 48 49 50 52 52 52 52 52 53 53 53 52 52 53 53 53 52 52 52 51 50 51 51 50 49 49 48 48 47
59 58 58 56 55 52 51 49 48 47 47 48 48 46 44 45 46 49 51 52 52 52 52 52 52 52 52 52 52 53 54 54 54 54 54 52 52 52 52 50 50 50 50
57 57 57 56 55 53 50 48 48 47 47 46 48 50 48 47 45 44 48 50 51 52 52 52 52 52 52 52 52 52 52 53 53 55 55 55 54 53 53 52 52 51 51
57 57 56 56 55 54 51 48 48 48 47 47 47 50 51 51 49 45 43 46 48 49 51 52 52 53 52 52 52 52 52 51 52 53 54 56 56 55 55 54 53 53 53
53 54 54 55 55 54 53 50 50 49 48 48 49 49 49 49 50 49 47 46 45 46 48 49 50 51 53 53 53 53 52 51 51 52 53 54 55 56 56 55 55 54 53
50 51 52 51 53 53 54 52 51 49 51 49 48 49 50 51 52 51 49 48 48 49 50 50 48 49 49 50 51 51 52 51 51 51 52 53 54 54 55 55 55 54 52
50 50 50 49 50 52 52 52 51 51 51 52 51 51 51 51 52 51 50 48 48 49 50 50 52 49 48 48 48 47 47 48 49 50 51 52 52 53 54 55 54 53 52
50 50 51 50 50 52 54 53 52 51 53 53 53 53 52 53 54 54 53 52 49 46 46 49 51 52 52 50 50 49 48 47 47 48 49 50 51 52 53 53 52 51 50
50 50 52 52 52 52 53 54 53 53 53 53 54 53 53 53 53 53 53 53 53 50 48 49 49 52 53 53 52 51 50 49 48 47 47 47 49 51 51 50 49 47 46
49 49 50 52 53 53 53 53 53 54 53 52 53 53 53 52 52 53 54 53 53 52 49 50 51 51 51 51 52 53 53 52 51 49 47 47 48 50 48 47 45 44 43
48 48 49 50 51 52 52 52 51 51 53 52 52 52 52 52 52 52 52 52 52 53 51 49 50 52 51 51 51 50 49 49 48 47 46 46 47 46 45 44 43 41 40
48 48 48 48 49 50 50 50 51 50 50 51 52 51 51 52 52 51 52 51 52 52 52 51 50 51 52 50 50 49 49 48 48 47 45 45 44 43 42 41 40 38 35
50 49 48 48 48 48 49 49 50 49 50 50 50 51 51 51 52 51 52 52 52 51 51 51 51 51 51 50 50 49 46 45 46 44 43 43 41 41 40 38 36 34 31
51 50 49 49 49 48 48 48 49 49 49 49 50 50 50 51 51 51 51 51 52 52 52 51 51 51 50 45 48 48 48 48 42 39 40 39 39 39 39 37 36 36 35
54 52 51 50 49 49 48 46 47 47 47 48 48 49 49 49 49 49 49 49 50 52 51 51 50 50 49 49 49 47 47 42 41 38 36 36 38 36 37 37 37 35 34
55 55 53 52 50 50 48 46 45 46 46 47 47 48 48 49 49 49 48 47 47 45 47 51 51 51 51 50 49 44 41 39 37 35 35 33 35 34 36 36 36 36 36
54 54 55 54 53 52 50 48 46 46 46 46 47 48 49 49 50 51 50 48 44 40 39 40 43 42 39 39 41 39 35 33 32 32 34 31 32 32 33 34 35 36 35
54 54 54 55 55 54 53 51 49 49 49 49 50 51 51 51 51 49 48 44 36 32 34 34 34 34 34 35 35 35 33 33 29 28 29 30 30 30 31 32 33 34 32
55 56 55 55 54 55 55 52 51 53 52 51 51 46 44 49 50 48 49 41 36 30 29 29 29 29 29 29 30 32 31 29 27 25 26 26 27 26 25 28 29 28 25

GFSMA_sfc_30mbdewp_093.txt.gz
Dewpoint
60 62 62 62 61 59 58 56 52 52 52 53 53 53 53 53 53 54 55 56 57 57 54 54 54 54 53 53 53 52 52 51 51 51 50 50 50 49 49 49 48 46 46
61 61 62 61 60 58 57 55 51 50 52 52 53 53 53 54 54 55 54 54 55 56 55 54 54 54 53 53 52 52 51 51 50 50 49 49 48 48 47 47 47 44 44
61 61 61 61 60 57 55 54 51 50 51 52 52 53 53 54 54 54 54 55 54 55 55 55 54 53 53 53 52 51 51 50 50 49 48 47 47 46 46 46 45 43 42
61 61 61 59 58 56 54 52 50 49 50 52 52 53 53 54 54 54 54 54 55 55 54 55 54 53 53 52 52 51 51 50 49 49 48 47 46 45 45 45 45 43 41
62 61 60 59 56 55 53 51 49 48 50 52 52 52 53 53 54 54 54 54 54 54 54 54 54 54 53 52 52 52 51 51 50 49 48 47 46 45 44 43 43 43 42
61 61 60 57 55 53 51 51 48 49 50 52 52 52 52 53 53 53 53 53 53 53 53 54 54 54 54 54 53 52 52 52 51 51 49 49 47 46 45 44 44 43 42
61 61 60 57 55 50 50 51 48 48 50 52 51 51 52 52 52 53 53 53 53 53 53 54 54 53 54 54 54 53 53 53 52 52 51 50 49 48 47 46 45 45 44
61 60 60 57 54 48 49 51 47 48 49 52 50 50 49 50 51 52 52 52 52 52 52 52 53 53 52 53 54 54 53 53 53 52 52 51 51 51 50 49 48 48 47
60 60 59 57 56 49 51 51 47 47 48 49 51 49 48 47 49 50 51 52 52 52 52 52 52 52 52 52 52 53 54 54 54 54 53 53 53 53 52 51 51 50 50
60 60 59 57 56 51 51 51 50 47 48 48 49 49 48 48 47 45 49 51 52 52 52 52 52 52 52 52 52 52 52 53 53 55 56 56 54 54 54 53 53 52 51
58 59 58 58 56 51 53 52 50 49 49 49 48 49 50 49 48 45 45 48 51 52 52 52 52 52 52 52 52 52 52 51 52 53 54 56 56 56 55 54 54 54 53
55 57 57 56 55 53 54 53 51 51 51 49 49 49 49 47 47 46 45 46 48 49 51 52 52 52 53 52 52 52 52 51 51 51 53 53 54 56 57 56 56 55 55
53 55 56 55 53 52 54 54 52 51 51 50 49 49 50 49 50 48 46 46 45 48 48 49 50 52 52 53 53 52 52 51 51 51 52 52 53 54 54 56 56 56 56
53 53 54 54 54 54 54 53 53 51 51 50 49 50 49 51 51 49 47 47 46 47 49 48 51 49 49 50 51 51 52 51 51 50 51 51 52 53 53 54 55 55 56
51 52 52 52 53 53 54 54 52 51 52 52 50 49 50 51 52 52 51 50 48 46 46 48 50 52 51 49 49 49 49 48 48 49 49 50 51 51 52 53 53 54 55
51 51 51 50 50 52 53 54 53 52 51 51 52 52 52 52 52 53 52 52 51 49 48 48 49 51 53 53 53 52 50 49 48 47 46 46 47 49 50 51 52 53 54
50 50 50 51 50 50 52 52 51 52 51 50 52 51 51 52 52 53 53 53 52 52 50 50 49 50 51 52 53 53 53 52 51 49 47 46 46 47 48 50 51 52 53
50 50 50 50 50 51 51 51 52 52 51 50 51 51 51 52 52 53 53 53 52 52 51 49 50 50 50 51 51 51 52 53 53 52 51 49 48 47 47 48 50 51 50
48 49 49 50 50 51 52 52 51 51 52 52 52 51 51 52 51 52 52 52 52 52 52 51 50 50 51 51 51 51 51 51 50 50 49 48 47 46 46 47 48 47 45
48 48 48 49 49 50 51 52 52 51 51 51 52 52 51 51 51 51 51 51 51 51 51 51 51 50 50 50 50 50 49 48 49 49 48 47 46 45 45 45 44 43 41
50 49 48 48 48 48 49 49 50 49 50 50 50 50 51 51 51 51 51 51 51 51 50 50 49 50 49 49 48 49 50 50 49 47 45 43 42 42 42 42 41 39 37
52 51 50 49 48 48 47 46 48 48 48 48 48 49 50 49 49 49 49 49 50 50 50 49 49 48 48 49 50 49 49 48 45 40 41 40 39 39 39 39 38 38 37
54 52 51 51 50 49 48 47 46 47 47 48 48 48 48 49 48 49 48 47 48 47 47 48 48 48 48 49 50 50 49 49 48 39 37 35 36 35 37 38 38 37 36
55 55 54 53 52 51 49 47 46 47 47 48 48 48 48 47 47 48 48 48 46 47 47 46 47 49 50 47 47 47 50 41 33 33 35 32 32 32 34 35 36 36 35
54 55 55 55 55 53 52 49 47 47 47 48 48 47 47 47 47 46 47 47 47 43 36 36 35 34 34 35 38 40 37 36 32 30 30 31 30 30 31 31 32 33 34
53 55 54 54 52 48 36 38 44 50 49 48 48 48 46 46 47 46 47 48 47 39 32 29 28 29 29 29 29 30 34 34 28 26 26 27 26 27 26 28 29 28 28

GFSMA_sfc_30mbdewp_096.txt.gz
Dewpoint
60 60 60 62 62 62 62 57 55 55 55 54 54 54 53 53 54 55 56 56 58 57 55 56 56 56 56 55 54 53 52 52 52 52 52 51 51 50 50 49 49 48 47
61 61 61 61 60 61 60 55 54 54 53 53 53 53 53 53 54 55 55 55 56 57 56 56 56 56 55 54 52 52 52 52 51 51 51 51 50 50 50 49 47 47 45
61 61 61 60 60 60 59 54 52 53 53 53 53 53 53 54 54 54 54 55 56 55 56 57 56 55 54 53 52 52 52 52 51 51 50 50 49 49 48 48 46 45 44
61 61 61 60 60 58 56 52 51 52 52 52 52 53 53 54 54 54 54 55 55 55 55 55 55 54 53 53 52 52 52 51 51 50 49 49 48 48 47 47 46 43 43
61 61 61 60 58 57 55 52 50 51 52 52 52 53 54 54 54 54 54 54 54 54 55 54 54 54 54 53 53 52 52 51 51 50 49 48 47 47 46 46 46 44 42
61 61 61 59 58 55 53 52 49 51 52 52 52 52 53 53 54 54 53 54 54 54 54 54 54 54 54 54 53 53 52 52 51 51 50 49 48 47 46 45 45 45 44
61 61 60 57 57 55 53 51 49 50 52 52 51 51 52 52 53 53 53 53 53 53 54 54 54 54 54 55 54 53 53 53 52 52 51 50 49 48 47 46 46 45 45
61 61 59 57 56 54 52 50 49 50 51 52 50 50 49 50 51 52 53 53 53 53 53 53 54 54 54 54 55 55 54 54 53 52 52 52 52 50 49 49 48 47 47
59 61 59 57 56 54 52 50 49 49 50 52 51 50 48 47 49 51 52 52 52 52 52 53 53 53 53 53 54 54 55 55 55 55 54 54 54 53 53 51 51 50 49
58 60 59 57 57 55 54 52 49 48 50 50 51 50 50 50 48 46 50 51 52 52 52 52 52 52 53 52 52 53 53 53 53 55 56 56 55 55 54 54 53 53 52
57 60 59 58 56 53 53 52 49 48 50 51 50 49 49 49 48 47 46 49 51 52 52 52 52 52 52 52 52 52 52 51 51 52 54 56 57 56 56 55 55 55 54
57 59 59 58 57 54 53 53 51 48 51 50 51 50 49 48 47 45 45 48 49 50 52 52 52 52 52 53 53 52 52 51 51 51 52 53 55 56 57 57 56 56 56
54 56 58 57 56 54 54 53 52 52 52 51 51 50 50 47 48 47 46 46 47 49 49 52 52 52 53 53 53 52 52 51 51 51 51 52 53 54 54 55 56 57 57
54 56 56 55 55 54 54 54 52 52 53 52 51 48 49 50 50 49 46 46 44 46 48 48 50 52 52 53 53 52 52 51 51 50 50 51 52 53 53 54 54 55 56
54 54 55 54 52 53 54 53 52 51 53 53 51 50 48 48 51 50 49 48 43 42 44 47 48 51 50 51 51 52 52 52 51 51 50 50 50 51 52 52 53 54 54
53 53 53 53 53 52 54 54 53 52 52 51 51 50 50 51 51 52 51 50 50 46 44 48 49 51 52 52 51 50 50 49 48 48 48 48 48 49 50 51 51 52 52
51 52 52 52 52 53 54 54 53 53 51 51 51 51 51 51 51 51 52 52 51 51 48 48 49 50 52 52 53 53 52 52 52 50 49 48 47 47 47 48 49 49 50
51 51 51 51 51 51 52 53 53 53 53 52 51 51 50 51 51 52 52 52 52 52 50 48 50 50 50 51 51 52 52 53 52 52 51 50 48 47 46 46 46 47 48
50 50 50 51 51 51 50 51 52 52 51 52 52 51 50 50 50 51 52 51 52 52 52 51 50 50 51 51 51 51 51 52 52 52 51 50 50 49 48 47 47 46 47
49 49 50 50 50 50 51 51 50 50 51 51 51 51 50 50 50 50 51 51 51 51 52 51 51 50 51 51 50 50 50 49 50 51 50 50 49 47 47 46 46 45 46
48 48 49 49 49 50 50 50 51 51 50 50 50 51 51 51 51 51 50 50 51 51 50 50 50 50 50 50 49 50 49 50 50 50 50 50 48 47 46 44 45 45 45
50 49 48 48 48 48 48 49 50 50 51 51 50 50 51 50 50 49 49 49 49 49 49 49 48 48 48 49 50 49 49 48 47 49 49 49 43 44 43 43 43 42 41
52 51 50 49 48 48 47 47 46 48 49 49 49 49 48 49 49 49 48 47 47 47 47 48 48 48 48 49 49 48 49 49 48 48 45 44 38 37 39 39 39 38 38
54 53 52 51 51 51 49 47 46 46 47 47 48 48 48 48 48 48 48 48 47 47 47 47 48 49 49 49 48 48 48 46 35 33 35 37 33 32 33 35 37 37 36
52 55 55 54 53 52 37 42 46 47 48 48 49 48 48 48 48 47 47 47 47 47 37 39 35 33 32 32 36 42 43 42 37 30 28 31 29 29 30 30 31 31 31
42 43 38 34 34 35 34 36 39 45 48 49 49 49 42 41 43 44 46 46 46 46 32 29 28 28 28 28 28 29 34 39 31 26 25 26 26 28 24 27 26 26 27

GFSMA_sfc_30mbdewp_099.txt.gz
Dewpoint
62 62 62 62 63 63 62 61 60 59 59 58 57 57 56 56 56 56 56 58 58 58 56 56 57 57 56 56 56 55 54 53 52 52 52 52 51 51 51 51 50 48 48
61 60 61 61 62 63 60 59 59 59 57 57 56 56 55 55 55 56 55 56 58 57 58 57 56 55 55 56 55 54 54 52 52 52 52 52 51 51 50 50 49 48 47
61 61 60 60 61 62 59 58 58 57 56 56 55 55 55 55 54 55 54 55 56 56 58 58 57 56 55 55 54 53 52 52 52 52 52 51 51 51 50 49 48 47 45
61 62 60 61 61 59 57 57 56 55 55 54 54 54 53 54 54 55 54 53 55 54 57 58 57 57 56 54 53 53 53 52 52 51 51 51 51 50 50 49 47 46 44
62 61 61 60 60 58 56 56 56 55 54 54 54 53 53 53 54 53 53 54 55 54 54 56 56 55 55 54 53 52 52 52 52 51 51 50 50 49 49 48 47 45 45
61 61 61 60 59 57 55 55 55 55 54 53 52 53 53 53 53 53 53 53 54 54 54 53 54 53 54 55 53 53 53 52 52 51 50 49 49 48 48 48 48 47 45
61 60 60 59 58 56 55 54 54 54 54 54 52 52 53 54 54 54 54 53 53 54 54 53 52 52 53 54 55 54 53 53 52 52 51 50 49 49 48 48 47 47 47
62 61 59 59 58 57 55 53 53 53 53 53 51 51 49 51 53 53 53 53 53 53 54 54 54 53 52 53 53 55 54 54 53 53 52 52 52 51 50 49 48 47 47
61 61 60 59 58 57 54 52 52 52 52 53 53 50 49 48 50 52 53 53 53 53 53 53 54 54 54 53 54 54 55 55 55 55 54 54 54 54 53 51 50 49 49
58 60 60 59 57 56 55 53 52 52 52 51 52 51 52 51 48 48 51 52 53 53 53 52 53 53 54 54 54 53 54 54 54 56 57 57 56 56 55 54 54 53 52
56 57 59 58 57 56 55 54 52 51 52 52 51 51 50 52 51 49 47 50 52 52 52 53 52 53 53 54 54 54 53 52 52 53 55 56 57 57 57 56 56 55 55
56 56 59 58 57 56 56 55 53 51 51 52 52 50 50 49 48 48 48 49 49 50 52 52 53 53 53 53 53 52 52 51 51 52 53 54 54 56 57 58 57 57 56
56 56 59 58 57 56 56 55 53 53 53 53 52 51 51 50 50 49 45 46 49 51 52 53 53 52 52 53 53 52 52 51 51 51 51 52 53 53 54 55 56 57 58
54 57 58 58 57 56 55 55 54 53 53 53 53 53 52 52 51 48 44 41 42 46 50 49 52 53 54 53 54 53 53 51 51 50 51 51 52 52 53 54 54 55 55
55 57 57 57 56 55 55 54 53 52 52 53 52 52 53 52 51 50 48 47 43 42 44 48 49 52 53 53 54 54 54 53 51 50 50 50 51 51 52 52 53 53 54
55 55 55 54 54 54 54 54 53 52 52 53 53 53 52 51 51 51 51 51 50 48 44 45 49 51 52 52 52 52 53 53 52 51 50 50 50 50 50 51 51 52 52
54 54 54 54 53 53 54 53 52 52 50 49 51 53 52 51 51 51 51 50 49 50 47 45 47 50 53 52 52 53 52 51 51 49 49 48 48 48 48 49 49 50 50
53 54 53 53 53 52 53 53 53 52 51 50 50 51 51 51 50 51 51 51 51 51 48 46 48 50 51 53 53 52 52 52 52 51 50 49 48 47 47 46 47 47 48
53 53 53 52 52 53 53 54 53 53 52 52 52 51 51 51 51 51 52 51 52 52 52 49 48 49 51 52 52 52 52 52 52 52 51 50 49 49 48 48 47 46 46
52 52 52 52 53 52 52 53 53 53 53 53 53 53 52 51 51 51 51 51 51 51 51 51 50 50 50 51 52 51 51 52 51 51 51 51 51 50 49 49 48 47 47
51 51 51 51 52 52 52 52 51 51 52 52 52 52 53 53 51 51 51 50 50 50 50 50 50 50 50 51 51 51 51 51 51 52 51 52 52 52 52 49 48 46 46
51 50 50 50 51 51 50 50 51 52 51 51 50 51 51 50 50 49 49 49 49 50 50 49 48 48 48 49 49 49 50 49 48 52 51 51 52 52 51 51 45 44 44
52 51 50 50 50 50 48 48 48 50 51 51 51 51 51 51 50 51 49 47 47 47 47 48 48 48 48 48 49 48 49 49 49 50 50 49 42 40 38 39 39 39 38
53 52 52 51 51 44 39 44 46 48 50 50 51 51 51 50 50 50 50 50 49 49 48 46 48 49 49 41 43 46 48 49 46 37 37 43 34 31 32 32 34 34 34
43 39 38 40 43 35 35 36 41 45 47 48 49 49 44 46 46 43 48 48 47 48 35 37 34 31 31 31 32 38 41 43 42 33 28 32 31 28 26 26 30 30 30
36 35 33 32 32 32 33 35 37 43 46 46 35 33 32 34 36 38 43 44 45 45 34 30 28 27 27 27 26 27 30 35 37 31 26 27 27 28 23 25 26 27 27

GFSMA_sfc_30mbdewp_102.txt.gz
Dewpoint
63 62 62 62 61 64 63 63 63 62 62 61 59 58 56 54 53 54 56 60 59 58 57 58 58 58 57 57 57 55 54 54 52 53 53 52 53 52 52 52 51 50 49
63 63 62 62 63 63 63 63 62 62 61 60 58 56 55 55 54 53 56 58 59 58 59 57 58 57 57 56 56 55 54 53 53 53 53 53 53 52 52 52 50 49 49
63 62 62 62 62 63 61 61 61 61 60 59 56 56 55 55 53 51 54 56 57 57 57 58 58 56 56 56 55 55 54 53 52 53 53 52 52 52 51 51 50 48 48
62 61 61 61 61 62 61 59 59 59 60 58 56 55 54 53 52 51 49 54 55 54 57 57 57 57 57 56 54 54 54 54 53 52 52 52 52 52 51 50 49 48 47
61 61 61 61 62 59 60 59 58 58 58 56 55 54 53 52 52 52 50 50 53 53 54 57 57 57 57 56 54 54 54 53 53 52 52 52 52 51 51 50 48 48 46
61 61 61 60 59 57 57 58 57 57 58 56 54 53 53 51 52 52 51 49 52 53 53 55 56 55 56 56 55 54 53 53 52 52 52 52 51 51 50 50 49 47 47
61 61 61 59 58 56 56 56 56 56 56 56 54 53 53 53 52 53 53 50 49 52 52 53 53 52 53 55 55 53 54 53 53 52 52 51 51 50 50 50 50 49 48
62 61 60 60 58 57 56 56 56 55 55 56 53 51 51 52 53 53 53 52 49 49 50 51 52 49 49 51 52 55 54 54 53 53 53 53 52 52 51 50 49 49 49
62 61 60 59 59 57 56 56 56 56 54 55 55 51 50 49 51 52 53 52 51 49 49 51 51 51 51 50 51 53 55 55 55 55 54 54 54 53 53 51 51 50 49
61 61 61 60 58 57 56 56 56 56 54 52 54 52 50 49 48 49 51 52 53 52 50 49 49 51 50 50 51 51 53 54 54 56 56 56 56 55 55 54 53 53 52
59 60 60 60 59 58 57 56 56 56 55 53 52 52 52 52 49 46 47 51 52 52 50 51 49 50 51 50 51 52 53 53 53 54 55 57 58 57 57 56 56 55 55
55 56 58 59 59 58 57 56 54 55 54 54 54 53 52 52 50 48 45 48 50 50 50 50 51 51 51 51 52 52 53 52 52 53 53 54 56 57 58 58 58 57 57
54 55 57 59 58 58 57 56 55 55 55 54 54 53 53 51 51 51 48 49 49 48 51 50 51 52 53 53 52 52 52 52 52 52 52 52 53 54 54 55 57 58 58
54 55 56 58 58 58 57 56 55 55 55 54 55 54 52 52 52 51 50 46 45 45 47 50 53 53 53 52 53 53 53 51 51 51 51 52 52 52 53 53 54 54 55
54 56 57 58 58 57 57 57 56 55 54 54 55 55 54 54 54 54 51 49 47 41 38 40 48 52 52 52 53 54 54 53 51 51 50 50 50 51 52 52 53 53 54
55 56 57 57 57 56 56 56 55 55 54 54 54 54 53 54 54 53 53 51 49 46 41 41 43 47 52 50 53 54 54 54 53 51 50 50 50 50 50 51 51 52 52
55 55 55 56 55 55 55 55 54 53 53 53 53 53 52 52 52 52 53 52 50 50 46 43 45 48 48 53 51 51 50 53 52 52 51 50 49 49 49 49 49 50 50
54 55 55 55 54 54 55 55 54 53 52 52 52 51 50 50 50 51 52 51 50 50 49 47 45 47 48 49 52 51 52 51 52 51 50 49 49 48 48 47 47 48 48
53 53 54 54 53 53 54 54 53 53 52 51 51 50 50 52 52 52 51 51 51 50 51 50 46 48 50 50 50 51 52 53 53 52 50 50 49 48 48 47 46 46 46
53 53 53 54 54 54 54 54 54 53 52 52 51 51 51 51 51 51 51 51 50 50 51 51 50 50 48 48 48 48 49 51 50 50 51 51 51 50 49 48 47 47 47
53 53 53 53 54 54 54 54 53 53 53 53 53 53 52 50 50 50 50 51 51 51 51 51 50 49 48 48 47 48 49 50 50 50 51 52 51 52 52 50 50 48 47
52 52 52 53 53 53 53 52 53 53 53 53 53 53 53 52 53 50 50 50 52 52 51 50 49 48 49 49 49 49 49 50 49 51 50 50 51 51 46 42 40 40 42
53 52 52 52 51 50 41 46 50 52 53 53 53 53 53 52 52 52 50 48 48 48 48 50 50 50 50 50 49 49 49 49 49 49 48 50 44 33 33 35 36 37 37
47 49 47 52 44 36 36 38 43 47 50 51 52 51 51 52 49 48 51 51 50 50 48 48 48 47 40 36 38 42 43 43 44 35 36 40 32 27 29 31 32 32 31
38 36 36 37 36 34 34 35 39 46 47 48 38 34 36 39 36 38 45 48 48 39 34 33 32 31 29 28 29 37 40 40 41 35 29 33 30 26 26 26 28 30 30
34 32 31 31 31 31 32 34 40 43 44 34 31 30 31 32 32 34 39 41 43 37 31 28 26 25 25 25 24 25 27 32 34 31 24 28 28 28 23 26 27 29 28

GFSMA_sfc_30mbdewp_105.txt.gz
Dewpoint
64 64 63 62 60 62 62 63 63 62 61 61 62 60 59 57 58 58 59 60 60 60 58 57 58 58 59 58 58 58 56 54 53 53 54 54 52 53 53 53 52 52 51
64 63 63 62 62 63 64 63 63 61 61 61 61 60 58 53 56 57 57 58 60 59 58 58 58 58 57 58 57 55 54 53 53 54 53 53 54 53 53 53 51 51 50
63 63 63 62 62 63 63 63 63 62 62 63 61 59 55 51 53 56 56 56 58 58 59 59 59 57 57 57 56 55 55 54 54 54 54 53 54 53 53 52 51 50 50
63 63 62 62 62 63 63 63 62 60 61 61 59 57 53 52 50 54 54 55 57 55 58 58 59 58 58 57 56 55 54 54 55 54 53 53 53 53 52 52 51 49 49
63 62 62 62 62 61 62 61 61 60 60 60 60 55 54 52 50 47 55 55 55 55 54 58 58 58 58 58 55 54 54 54 53 53 53 53 53 53 52 51 51 50 48
63 61 61 61 61 61 61 60 59 60 59 59 59 54 53 52 49 50 48 53 55 54 53 55 56 56 57 57 56 54 55 54 53 53 53 53 53 52 52 52 50 50 49
61 61 61 61 60 59 58 59 58 58 59 59 57 54 53 53 53 53 51 47 50 52 51 56 55 54 55 56 56 55 55 55 53 53 53 52 52 53 53 51 51 50 49
60 60 61 60 58 57 57 57 57 57 57 59 55 53 52 53 53 53 53 51 51 50 52 55 55 53 52 53 54 56 54 54 53 53 53 54 53 53 53 52 51 51 50
61 61 61 60 58 57 56 56 57 57 56 57 55 52 50 50 51 53 53 52 51 50 50 52 53 50 50 50 52 54 54 55 55 55 55 55 54 54 53 52 51 51 51
60 61 61 60 59 57 57 57 57 57 56 55 55 56 52 53 49 49 53 53 53 50 50 50 49 50 49 50 50 51 53 53 54 56 56 56 56 55 55 54 53 53 52
59 61 61 60 59 58 57 57 57 58 57 55 54 55 54 52 51 47 47 51 53 53 49 49 48 49 50 50 50 51 52 52 52 54 55 57 57 57 56 56 56 55 55
58 58 61 60 59 59 58 58 58 58 57 56 55 54 52 51 51 49 47 50 51 52 52 51 50 50 50 51 50 50 51 51 52 52 53 55 56 58 58 58 58 57 57
56 57 59 60 60 59 58 57 57 57 57 55 54 53 53 53 52 51 48 50 50 51 52 52 50 50 50 51 51 51 51 51 51 52 53 53 54 55 56 57 58 58 59
55 55 57 59 59 59 58 57 57 57 57 57 56 56 55 54 54 52 50 48 48 49 50 50 50 51 52 53 53 53 52 51 51 51 52 52 52 52 53 53 54 54 55
55 55 55 56 59 59 58 57 56 55 56 56 56 57 55 54 53 53 52 50 47 46 45 49 49 53 54 54 54 54 54 54 51 51 50 51 51 51 52 52 53 53 53
54 55 56 57 58 58 58 57 56 56 55 56 56 56 55 55 55 55 53 52 51 48 45 45 46 48 54 53 54 54 55 54 53 51 50 50 50 50 51 51 51 51 52
54 55 56 57 57 57 57 57 56 56 55 55 55 55 55 55 54 54 55 54 52 51 48 47 46 46 51 52 50 52 54 55 55 51 50 50 50 50 50 50 50 50 50
54 54 55 56 56 56 56 55 54 54 54 53 53 54 53 54 54 54 54 53 52 51 49 47 47 47 46 49 52 52 53 51 52 51 51 50 50 49 49 49 49 48 48
54 54 54 55 54 55 55 55 55 54 54 53 54 53 52 52 52 53 53 52 52 51 52 50 50 51 49 49 49 51 52 53 54 52 50 49 49 49 48 48 47 47 47
53 53 53 54 54 53 54 53 54 54 53 53 53 53 53 52 51 52 52 52 52 51 51 50 49 49 49 50 50 50 51 52 52 52 50 50 51 50 49 48 47 46 46
54 53 53 54 54 54 53 53 53 53 53 52 53 52 52 51 51 52 52 52 51 51 51 50 49 49 49 49 49 50 48 48 49 51 52 52 52 52 43 40 40 40 41
53 53 53 54 54 53 43 51 53 53 53 53 52 52 52 51 51 49 49 48 50 51 51 50 50 49 49 50 51 50 49 49 49 51 49 51 44 36 35 36 37 37 37
53 53 53 53 48 39 37 41 46 52 54 54 53 53 54 53 52 53 51 48 48 48 48 52 52 51 51 48 44 47 48 48 47 43 45 46 34 31 32 33 34 33 33
44 44 43 42 39 34 35 37 41 49 51 50 42 41 43 44 37 41 47 50 46 39 40 44 43 37 33 33 36 40 41 42 43 36 35 40 32 28 29 31 32 31 31
35 34 35 35 34 33 33 37 41 46 46 36 33 33 35 34 33 36 43 45 37 31 31 30 30 29 29 29 30 36 35 36 38 34 27 32 30 27 27 27 29 30 30
32 31 30 31 31 30 32 34 42 44 34 30 30 30 31 31 31 33 38 40 39 30 28 27 26 25 25 26 25 26 28 32 32 31 25 27 29 27 24 27 29 30 30

GFSMA_sfc_30mbdewp_111.txt.gz
Dewpoint
64 64 64 64 63 64 63 62 62 61 60 60 60 60 60 60 61 61 63 62 63 62 61 59 59 59 58 59 60 58 57 56 55 55 55 56 56 56 55 55 54 53 53
64 64 64 64 63 64 63 62 62 61 60 60 59 60 61 61 61 61 61 62 62 62 61 60 58 58 58 59 60 59 57 55 55 55 55 55 55 56 55 54 53 53 52
65 64 63 63 63 63 63 62 62 61 60 60 60 60 60 60 61 60 60 61 61 60 60 60 59 59 59 59 59 59 57 55 54 55 55 54 55 55 55 54 53 52 52
64 64 63 63 63 63 63 62 62 61 60 60 60 60 60 61 62 60 60 60 60 59 59 60 60 60 60 59 58 56 55 55 55 55 54 54 54 55 55 54 53 52 51
65 63 63 63 63 62 62 62 61 61 59 60 60 60 60 61 61 59 59 59 59 58 59 60 60 60 60 59 57 55 54 54 54 54 53 52 54 54 54 54 53 52 51
64 64 63 63 62 62 62 62 61 61 60 60 60 59 59 61 61 58 58 58 58 58 58 59 59 59 59 59 58 55 54 53 54 54 53 52 55 55 54 54 53 52 51
64 63 63 62 62 62 62 62 61 60 60 60 59 59 59 59 59 58 57 57 57 57 57 59 59 58 58 59 58 56 54 55 53 55 53 53 54 55 55 54 53 53 52
63 63 62 62 62 61 61 61 60 59 59 60 57 57 53 54 57 57 57 57 56 56 57 58 58 57 57 58 58 57 55 55 54 53 54 55 53 55 55 55 54 53 53
62 63 62 61 60 60 59 60 59 57 56 59 59 54 51 50 53 54 55 56 55 55 56 57 57 56 56 57 57 57 56 55 57 57 54 55 56 56 55 54 54 54 53
62 62 61 60 59 58 57 58 59 58 57 57 57 57 55 52 49 50 54 53 54 54 55 56 56 55 56 56 56 56 56 54 54 57 57 56 56 56 56 55 55 54 54
60 62 60 59 58 57 57 56 57 58 58 57 56 55 54 53 53 50 49 52 54 54 53 54 56 55 55 55 55 55 55 54 53 54 56 57 57 57 57 56 56 55 55
60 61 60 59 58 57 57 56 57 58 57 57 56 55 53 52 52 51 51 52 51 53 53 54 54 55 54 54 55 54 54 53 52 52 54 56 57 58 58 57 57 57 57
60 60 60 59 58 57 57 56 56 57 57 57 56 55 54 54 54 51 49 51 51 52 52 53 54 53 53 53 54 53 53 52 52 52 52 53 55 56 58 58 58 58 58
58 60 60 59 58 57 57 57 57 57 57 57 56 56 55 55 55 53 50 51 50 51 52 51 53 53 53 53 53 51 51 51 51 51 51 51 52 53 55 56 58 58 59
58 59 60 60 59 57 57 57 57 57 57 57 56 56 56 56 55 54 53 52 50 49 50 52 51 53 53 53 53 52 51 50 49 50 50 51 51 52 52 53 54 55 56
58 58 60 59 59 58 58 57 56 57 57 57 56 56 55 56 55 55 53 53 51 50 49 51 52 52 54 53 53 52 53 52 49 49 49 49 50 51 51 52 52 52 52
57 56 58 59 59 58 58 57 57 57 56 56 57 56 56 55 56 56 55 53 51 50 47 48 50 52 51 52 54 54 54 54 54 51 50 49 49 49 49 50 50 51 51
56 56 56 57 59 58 58 57 56 56 56 55 56 56 56 56 56 55 55 55 55 54 52 50 50 51 51 50 51 53 54 55 55 55 53 51 51 50 50 49 48 48 48
56 56 56 56 58 58 58 57 56 56 55 55 55 55 55 55 55 55 55 54 54 54 54 53 52 52 51 49 49 50 50 52 54 55 53 52 51 48 47 47 46 46 46
56 56 57 56 57 57 57 57 56 56 56 55 55 55 55 55 55 54 54 54 54 53 53 52 51 50 49 51 51 49 49 52 51 52 53 46 42 40 40 40 40 41 40
55 55 56 56 56 56 54 56 55 55 55 55 55 55 55 55 54 54 54 54 53 53 52 51 51 51 50 50 49 50 50 50 50 50 50 43 40 38 38 37 38 38 38
55 55 55 55 48 43 41 48 55 55 55 54 54 54 54 53 53 52 52 53 54 53 52 51 51 50 50 50 50 49 49 48 48 43 47 40 38 34 34 35 36 35 35
53 52 49 46 41 39 37 43 49 54 54 51 51 53 52 45 49 51 50 43 40 41 44 50 51 50 49 44 45 48 49 49 48 37 42 39 33 30 32 34 34 34 34
39 39 38 37 36 35 36 39 48 45 41 39 39 41 42 41 38 45 44 39 34 33 35 36 38 34 33 33 37 40 41 41 35 32 33 36 31 28 30 32 32 31 30
32 32 32 33 33 33 36 42 42 38 34 32 32 33 34 35 35 39 39 34 30 29 31 31 31 30 30 30 32 38 37 38 35 29 28 32 29 27 28 29 31 31 28
31 31 30 31 31 31 34 35 36 33 30 30 30 31 31 32 34 39 38 33 30 28 27 27 26 26 27 27 27 28 30 35 32 27 27 29 29 27 24 29 28 29 25

GFSMA_sfc_30mbdewp_114.txt.gz
Dewpoint
65 65 64 63 63 63 63 63 62 62 61 60 61 61 60 61 61 62 63 62 63 63 62 60 59 59 58 58 60 59 58 57 56 54 55 56 56 56 56 56 55 54 54
65 64 64 63 63 63 63 62 62 61 60 60 60 60 59 60 61 61 63 62 62 63 62 61 59 59 58 58 60 59 58 56 55 56 56 56 56 56 56 55 54 54 53
64 64 64 64 63 63 62 62 61 60 59 59 58 59 60 61 61 61 62 63 63 62 61 61 60 60 58 59 59 58 58 56 55 55 56 55 56 56 55 55 54 53 53
64 63 63 63 63 63 62 61 61 60 59 59 59 59 60 60 61 61 62 62 62 61 61 61 60 60 60 60 58 58 57 55 55 56 56 55 55 56 55 54 54 53 52
65 64 63 62 63 62 62 61 61 60 59 59 59 59 60 60 61 61 61 61 60 60 60 60 60 60 60 60 59 58 56 54 54 55 56 54 55 56 55 55 53 53 52
64 63 63 62 63 63 61 61 61 60 60 59 59 59 59 60 61 61 60 60 59 59 59 60 60 60 60 60 59 57 56 55 54 55 54 53 52 55 55 55 54 52 52
64 63 63 62 62 62 62 62 61 60 59 60 59 59 58 59 60 60 60 59 58 58 58 59 59 59 59 59 59 58 56 54 53 54 54 53 54 56 56 55 54 54 52
63 63 62 62 62 61 61 61 61 60 60 60 57 56 53 55 58 59 59 58 57 57 57 59 59 58 58 59 58 58 57 53 53 54 55 53 55 55 56 55 55 54 53
62 63 62 62 61 61 60 60 60 59 58 59 58 55 52 51 55 57 58 57 57 56 57 58 58 58 58 58 58 58 56 55 56 56 55 55 54 55 56 55 55 55 54
62 63 62 61 61 61 60 60 60 59 57 56 58 58 55 54 51 51 56 57 56 56 56 57 57 57 57 57 57 57 56 55 55 56 56 56 56 56 56 56 55 54 54
62 62 61 61 60 59 58 59 59 58 58 56 56 56 56 54 54 52 51 53 55 55 55 56 56 56 56 56 56 56 55 55 54 55 58 57 57 57 57 57 57 56 55
60 61 61 60 59 58 57 57 57 58 57 57 57 56 54 53 52 52 52 53 53 54 54 55 56 56 55 55 55 55 55 54 54 54 55 57 58 58 58 58 57 56 56
59 61 60 59 58 57 57 56 56 57 57 57 56 56 56 55 54 53 52 52 52 53 54 54 54 55 56 55 55 54 54 53 53 53 53 54 56 57 58 58 58 58 58
59 60 60 59 58 57 57 56 55 56 58 57 56 56 55 55 54 53 53 51 50 51 53 52 54 54 54 55 54 54 54 53 52 52 52 52 53 55 56 57 58 59 59
59 60 60 59 58 57 57 56 55 56 57 57 56 56 55 55 55 55 54 53 50 48 49 51 51 54 54 54 54 53 54 53 51 51 51 51 51 52 53 54 55 56 57
59 59 60 59 58 57 57 57 55 56 56 56 57 56 56 55 55 56 54 53 52 49 48 51 52 53 54 53 53 54 53 52 50 50 50 50 50 51 51 52 52 53 53
58 59 59 59 59 57 57 57 56 56 56 56 56 56 56 56 55 55 55 54 52 51 50 50 52 53 53 54 55 54 54 53 52 49 48 48 49 49 50 50 50 51 51
58 58 59 59 58 58 57 57 56 56 56 56 56 56 56 56 55 55 54 54 53 52 51 49 50 52 53 53 53 55 55 55 55 54 50 49 48 48 47 48 48 48 48
57 57 58 58 57 58 57 57 57 56 56 56 56 56 56 56 55 56 56 55 55 55 54 52 52 52 53 53 53 53 52 54 55 55 53 49 49 47 46 45 45 44 44
56 56 56 57 58 58 58 57 57 56 56 56 56 56 56 56 55 55 55 55 55 54 54 53 53 52 52 53 53 51 51 51 50 49 43 41 40 40 40 40 40 40 40
56 56 56 56 57 57 56 57 57 56 55 55 55 55 56 56 55 55 55 54 54 53 53 52 51 51 51 50 50 51 51 50 50 50 44 42 40 38 38 38 38 38 38
56 56 56 56 52 47 46 51 56 56 55 55 54 55 55 54 54 54 54 54 54 53 52 52 51 50 51 51 50 50 50 49 48 43 44 36 36 34 35 36 36 36 35
49 48 47 46 43 40 40 47 50 55 55 54 54 54 54 51 52 53 45 44 42 41 44 51 51 51 50 50 49 49 49 48 47 38 43 33 32 30 33 34 34 34 33
34 34 35 36 36 36 37 43 47 47 44 41 41 42 46 44 42 48 46 41 36 34 36 38 40 38 36 36 41 43 44 38 34 32 35 32 31 28 31 33 32 31 29
32 31 31 31 32 33 36 42 42 39 35 33 33 34 35 37 36 40 42 36 31 30 32 32 31 31 31 31 34 39 40 40 36 30 29 31 28 27 28 29 31 31 28
32 31 30 30 31 31 34 34 34 33 32 30 30 31 32 33 36 38 36 34 31 27 28 27 27 27 27 28 28 30 34 37 31 29 28 29 27 26 24 28 29 29 24

GFSMA_sfc_30mbdewp_117.txt.gz
Dewpoint
65 65 64 64 63 63 64 63 63 62 61 60 60 60 60 60 61 62 63 63 62 63 64 61 60 58 58 57 59 59 58 57 56 55 56 56 56 56 56 56 56 55 54
65 65 64 63 63 62 63 63 62 61 60 60 60 60 59 60 60 61 62 63 62 63 63 62 60 58 58 57 59 59 58 57 56 54 55 56 55 55 56 56 55 55 54
65 64 64 63 63 62 62 61 61 60 60 59 59 60 59 59 60 60 61 62 62 63 63 62 61 60 59 58 59 59 58 56 56 55 56 56 55 55 56 55 55 54 54
64 64 64 63 63 62 62 61 61 60 59 59 58 58 59 60 60 60 61 62 62 62 62 62 60 60 60 59 59 57 57 55 57 57 56 56 55 56 56 55 55 54 53
64 63 63 63 63 62 62 61 61 60 59 59 59 58 59 59 60 61 61 62 62 62 62 61 60 60 60 60 59 58 57 56 56 57 56 55 55 56 56 55 54 54 53
64 63 63 62 62 62 62 61 61 60 60 59 58 59 59 60 60 61 61 61 62 61 60 61 60 60 59 60 59 58 57 55 54 56 56 55 56 55 56 55 54 53 53
64 63 63 62 62 62 62 61 61 60 59 60 58 58 58 59 60 60 61 61 60 59 59 60 60 59 59 59 59 59 57 56 55 55 55 56 54 53 56 56 55 54 53
64 63 63 62 62 62 62 61 61 60 60 59 57 56 54 56 58 60 60 60 59 59 58 59 59 59 59 59 59 59 58 57 56 55 57 56 53 54 55 55 55 55 54
63 63 63 62 62 62 61 61 61 60 58 59 59 55 52 51 54 57 58 59 59 58 58 58 59 59 58 59 58 58 58 57 56 55 56 56 55 53 55 55 55 55 54
62 62 62 62 61 61 61 61 61 60 59 57 59 58 55 54 53 51 57 57 58 57 57 58 58 58 58 58 58 58 57 56 55 55 57 56 55 54 54 55 56 55 55
62 62 62 61 61 61 61 60 59 59 59 58 57 57 57 55 55 52 52 54 56 57 57 57 57 58 58 57 57 57 56 55 54 56 57 56 56 55 55 56 57 56 56
61 62 62 61 61 61 60 59 59 59 58 57 57 56 55 54 54 53 53 53 53 55 56 56 56 57 57 57 57 56 56 55 54 54 55 57 57 57 57 57 57 57 56
60 60 61 61 60 59 58 58 58 58 58 57 57 56 56 55 55 54 54 53 52 54 55 56 56 56 56 56 56 55 55 54 54 54 54 54 57 58 58 58 58 58 57
60 60 60 60 60 58 58 58 57 57 57 57 57 56 56 56 55 54 54 53 51 52 53 54 55 56 56 56 55 54 55 53 53 53 53 53 54 55 57 58 58 58 58
60 60 60 60 59 58 58 57 56 56 56 56 56 56 56 55 55 55 55 54 51 49 51 53 53 55 55 55 55 55 54 54 52 52 52 52 53 53 54 55 56 58 58
60 59 60 59 58 58 57 56 56 55 55 56 57 56 55 55 55 55 55 55 53 51 49 52 53 53 54 54 54 54 54 54 53 52 51 51 51 51 52 52 53 54 54
59 59 59 59 58 57 57 56 56 56 55 55 56 56 55 55 55 55 55 54 53 52 49 50 51 53 53 54 53 54 55 55 55 53 51 50 50 50 50 50 51 51 52
59 59 59 59 58 57 57 56 55 55 55 55 55 56 55 56 55 55 55 54 53 53 51 49 51 52 52 54 54 54 55 54 54 53 52 49 48 47 48 48 48 48 48
58 59 59 58 58 58 57 56 56 56 55 56 56 56 56 55 55 55 55 54 54 54 53 52 51 52 53 54 54 54 54 55 55 55 51 50 48 48 48 47 47 46 45
58 58 58 58 58 57 57 56 56 56 56 56 56 56 56 56 55 55 55 55 54 54 53 52 52 52 52 53 54 52 52 53 52 45 42 42 41 41 41 41 41 41 40
58 57 58 58 57 57 57 57 57 56 56 56 56 56 56 57 56 56 55 55 55 54 54 53 52 51 52 51 52 52 52 52 51 44 41 41 39 38 38 39 39 39 38
50 57 56 57 56 49 45 55 57 56 56 55 55 55 56 55 55 55 55 55 55 54 53 52 52 51 51 51 51 51 51 50 47 45 40 35 36 35 36 36 36 36 36
35 37 40 43 40 38 39 44 53 56 55 55 55 54 54 54 54 53 44 44 43 43 48 52 52 51 51 51 51 50 50 50 48 40 39 31 32 31 34 35 35 34 33
33 32 33 34 35 35 38 42 45 52 48 45 44 47 51 49 46 49 46 43 38 36 37 40 43 40 39 40 44 47 48 41 35 34 36 31 30 29 31 33 33 31 30
32 32 32 32 32 33 35 37 41 39 36 34 34 35 38 42 39 42 44 39 33 30 32 32 32 31 32 33 36 41 42 42 37 33 32 29 28 27 29 30 31 31 30
32 32 32 31 31 31 34 34 33 32 31 31 31 31 33 35 37 40 40 37 34 28 28 28 28 28 28 29 29 32 36 40 33 31 30 29 27 26 24 28 30 27 25

GFSMA_sfc_30mbdewp_120.txt.gz
Dewpoint
65 65 64 65 65 64 64 64 64 63 62 61 61 60 60 60 60 62 63 63 63 62 64 63 62 61 59 59 59 58 57 56 56 56 56 57 56 55 55 55 55 56 55
65 64 64 64 63 64 65 64 62 62 61 60 60 60 60 60 60 61 62 62 63 62 63 64 62 60 59 57 59 58 58 57 56 54 56 55 54 54 54 54 56 55 55
65 64 64 63 63 63 63 62 61 61 60 60 59 60 60 60 59 60 61 62 62 62 61 63 63 61 59 58 59 59 58 57 56 56 56 55 54 55 53 56 56 55 55
65 64 64 63 62 62 62 61 60 59 59 59 59 59 59 59 59 59 60 61 61 62 62 62 63 62 60 59 59 58 56 56 56 56 56 55 55 54 55 55 55 55 54
64 64 64 63 62 62 61 61 60 60 59 58 58 58 58 58 59 60 60 60 61 62 62 62 62 62 60 60 60 58 57 55 54 57 56 55 55 55 55 56 55 55 54
64 64 63 62 62 62 62 61 61 61 60 59 59 58 58 59 59 60 60 61 62 62 62 62 62 62 60 60 60 59 57 54 53 57 56 54 55 55 55 55 55 54 54
64 63 63 62 62 62 61 60 61 60 59 60 58 58 58 59 60 60 61 61 61 62 62 62 61 60 60 59 60 59 58 54 55 55 57 55 55 55 55 55 55 54 54
64 63 63 62 62 62 62 61 61 60 60 60 57 56 54 56 58 59 60 60 60 61 60 60 60 59 59 59 59 59 58 57 55 54 57 57 55 54 54 56 55 55 54
64 64 63 62 62 62 62 61 61 60 58 59 59 55 52 51 55 58 58 60 60 59 59 60 60 59 59 59 59 58 58 58 58 57 57 57 56 54 53 55 54 55 55
64 64 63 62 62 62 62 61 61 61 59 57 59 58 55 54 52 51 57 58 59 58 59 59 59 59 59 59 58 58 57 57 57 57 57 58 56 54 53 54 55 55 55
63 63 62 62 62 61 61 61 61 60 60 58 57 57 57 55 55 53 51 54 57 58 58 58 59 58 58 59 58 57 56 55 56 56 56 56 56 55 54 54 55 55 56
61 62 62 61 61 61 61 61 60 60 59 59 59 57 56 55 54 54 52 53 54 56 57 58 58 58 58 58 58 57 56 55 55 55 56 56 56 56 56 54 54 55 56
61 61 61 61 61 61 61 61 60 59 59 58 58 57 57 56 55 55 54 53 53 54 55 57 57 57 57 58 57 56 55 54 54 54 54 55 57 57 57 57 57 57 57
61 61 61 61 61 61 60 60 59 59 59 58 58 57 57 56 56 55 54 54 52 52 53 53 57 57 56 56 56 56 56 54 54 53 54 54 54 55 57 58 58 58 58
56 56 61 61 60 60 59 59 59 58 58 58 57 57 56 56 56 56 55 55 53 50 51 53 54 57 57 57 56 55 55 54 53 53 53 53 53 54 54 56 57 58 58
60 60 60 60 60 59 59 59 58 57 57 57 56 56 56 56 56 56 55 55 55 52 51 53 54 56 57 56 56 55 55 54 53 52 52 52 52 52 53 53 54 55 56
60 59 60 59 60 58 58 58 57 56 56 55 56 56 56 56 55 55 55 55 55 53 51 53 54 56 55 54 52 55 55 54 54 52 51 51 51 50 50 51 51 52 52
59 59 59 59 59 58 58 57 56 56 55 54 55 56 55 56 55 55 55 54 54 54 52 50 52 53 54 54 54 54 54 54 55 54 53 52 51 50 49 48 49 49 50
59 59 59 59 58 58 57 57 56 55 55 55 55 55 55 55 55 55 55 54 54 54 53 52 51 52 53 54 54 54 54 55 55 54 52 51 50 49 47 47 47 47 47
57 58 59 58 58 58 57 57 56 55 55 55 55 55 56 55 55 55 55 55 54 54 53 53 52 52 52 53 53 53 53 54 50 45 43 43 43 43 43 43 43 42 42
40 43 57 58 58 58 57 57 56 56 55 55 56 56 56 56 56 56 55 55 55 54 53 52 52 52 52 52 52 53 52 53 51 43 40 40 40 39 40 40 40 40 39
37 36 38 43 49 44 41 54 56 55 56 56 55 56 56 55 55 54 54 55 55 54 53 53 52 51 52 52 53 53 52 51 46 44 40 36 37 36 37 37 38 37 37
35 35 35 35 35 35 36 43 50 57 56 55 55 55 55 55 55 54 49 47 46 46 50 54 52 52 52 52 52 51 51 50 47 42 38 31 33 32 35 36 36 35 34
32 33 33 33 33 33 35 39 43 51 49 43 43 45 53 53 53 50 46 43 40 38 40 42 45 43 42 43 48 50 50 42 36 35 36 31 31 30 32 34 34 33 32
30 31 30 31 32 32 33 34 36 35 34 33 33 34 36 43 41 46 45 40 34 32 33 33 33 32 33 34 37 44 44 43 38 35 33 29 29 28 29 30 32 31 29
29 29 28 29 29 30 32 33 34 32 31 30 31 31 33 35 37 40 42 39 37 30 30 29 28 28 28 29 30 33 37 42 35 32 31 28 28 27 25 29 28 28 28

GFSMA_sfc_30mbdewp_123.txt.gz
Dewpoint
67 67 67 68 68 67 66 66 65 65 64 64 63 62 62 62 63 62 63 63 63 62 63 65 65 63 62 62 61 61 59 58 57 56 56 56 56 56 55 55 55 55 55
66 66 67 67 67 67 66 65 64 64 64 63 62 62 61 61 61 61 62 63 63 63 62 64 65 63 61 60 60 59 58 58 58 57 56 56 56 55 55 55 54 55 55
66 65 65 66 66 66 66 65 64 63 63 63 61 61 61 61 60 60 61 62 62 62 62 61 63 64 62 59 59 58 58 57 57 56 57 56 55 55 54 55 55 56 55
65 65 64 65 65 65 65 63 62 62 63 62 61 61 61 61 60 60 60 61 61 62 62 62 61 62 63 60 59 58 57 58 57 57 56 56 55 55 54 55 55 56 55
65 64 64 64 65 65 64 62 61 62 60 61 61 61 61 60 60 60 59 60 60 61 61 61 61 61 62 61 60 58 57 56 56 56 56 55 55 55 55 55 55 56 55
64 64 64 64 64 63 63 63 62 62 61 60 60 60 60 61 60 60 60 60 60 60 61 61 63 62 62 61 60 60 58 57 56 56 55 55 55 54 54 55 55 55 55
64 65 64 63 63 63 63 62 62 60 60 61 59 58 59 60 60 60 60 60 60 60 61 61 62 62 62 61 60 60 58 57 55 55 56 56 56 55 55 55 55 55 54
64 64 64 63 63 63 62 62 61 60 60 60 58 58 55 57 59 60 60 60 60 60 61 61 62 62 62 62 60 60 59 58 56 56 58 57 56 55 54 54 54 55 54
64 64 64 63 63 63 61 61 61 60 59 60 60 57 54 53 56 58 58 60 59 60 61 60 61 61 61 61 59 59 59 58 57 58 57 58 56 54 54 54 55 55 55
64 64 64 63 63 63 63 62 63 62 60 58 60 60 58 55 52 52 57 58 59 59 60 60 60 60 61 60 59 57 57 57 57 58 58 58 57 55 54 53 54 55 55
65 64 64 63 63 63 63 62 62 62 61 58 57 58 58 57 56 53 51 55 57 58 59 60 60 60 60 60 58 57 57 56 57 57 58 58 58 56 55 54 53 55 54
64 64 64 64 63 63 63 62 62 62 61 59 59 58 57 55 55 55 53 53 54 56 58 59 59 59 60 59 59 57 56 55 55 56 57 57 57 57 56 55 54 54 55
62 63 63 62 63 63 62 62 62 62 61 59 59 59 58 58 57 56 55 54 53 55 57 58 59 59 59 60 59 57 56 54 54 55 56 56 56 56 56 56 55 54 54
62 62 62 63 63 62 62 62 62 61 61 60 59 59 58 58 58 56 55 54 52 53 54 54 58 59 59 59 58 56 57 54 53 54 54 55 55 56 56 56 56 56 56
62 63 62 62 62 62 62 62 61 60 60 59 59 59 58 58 58 57 56 56 54 50 50 53 54 58 58 58 58 57 57 55 53 53 53 53 54 54 55 56 56 56 56
62 61 62 62 61 61 61 60 59 60 59 59 59 58 58 57 57 57 57 56 56 54 51 54 54 56 57 57 57 57 57 56 54 53 52 52 52 53 53 54 54 56 57
61 60 60 60 60 60 60 59 58 59 58 58 58 57 57 57 56 56 56 55 56 56 53 53 55 56 56 57 57 57 57 56 56 52 52 51 51 52 52 52 52 53 54
60 60 60 60 60 60 59 58 58 58 58 57 57 57 56 56 56 55 55 55 56 56 54 52 54 54 54 56 56 55 54 55 55 54 51 50 50 50 50 50 50 50 51
46 57 59 59 59 59 59 58 58 58 57 57 57 56 55 56 55 55 55 56 55 55 54 52 52 54 54 55 55 55 54 54 54 55 51 50 50 49 49 49 49 48 48
41 41 44 56 59 58 58 58 58 57 57 57 56 56 55 56 55 55 55 55 55 55 54 53 52 52 53 53 54 53 53 55 54 47 45 47 46 47 47 47 47 47 46
37 39 39 39 40 42 37 39 54 57 56 56 55 56 56 56 55 56 55 55 55 54 53 52 52 52 52 52 52 53 53 53 49 45 42 42 42 41 41 42 42 42 41
34 34 35 36 36 36 35 37 42 55 56 55 55 55 56 55 55 54 54 55 56 54 53 53 52 51 52 52 53 53 52 51 47 44 41 36 38 37 38 39 39 39 39
31 31 31 33 32 32 34 35 40 48 55 56 56 56 56 56 55 55 53 51 51 51 52 54 53 53 52 53 53 53 53 52 50 43 39 33 34 33 36 37 37 37 37
30 30 30 30 30 30 32 34 35 36 35 35 36 38 46 54 54 55 50 47 44 42 45 48 52 52 51 51 53 53 52 42 37 36 37 32 32 30 33 35 35 34 33
30 30 29 29 29 29 31 32 34 34 33 32 32 33 34 37 37 42 48 44 38 34 34 34 34 34 34 36 42 47 45 43 38 36 34 31 30 29 30 31 32 32 31
29 29 29 29 29 28 30 30 30 32 32 31 31 31 31 32 34 38 43 41 40 34 31 31 31 29 30 30 32 36 44 45 37 35 33 30 28 28 25 29 29 29 29

GFSMA_sfc_30mbdewp_126.txt.gz
Dewpoint
65 65 65 65 64 64 64 62 62 64 63 62 62 61 61 61 60 58 59 63 63 63 62 62 64 64 63 61 61 62 60 60 59 58 58 57 57 57 55 54 55 55 56
65 65 65 66 65 65 64 63 62 63 61 61 61 61 60 59 59 58 58 62 62 63 63 63 64 64 63 61 61 62 60 60 59 58 58 57 56 56 55 54 55 54 55
66 66 66 66 66 65 65 64 63 63 61 61 60 60 60 60 59 59 59 58 61 61 62 62 64 63 63 62 62 61 59 59 58 58 57 57 56 55 55 54 54 55 55
66 66 65 65 65 67 66 65 65 64 61 61 60 60 59 59 59 59 59 58 58 60 61 62 62 62 62 63 61 59 58 60 59 58 58 57 56 55 55 55 54 55 56
66 65 65 65 66 66 65 65 64 63 62 61 60 60 60 59 59 59 58 59 59 58 58 61 61 61 62 62 61 60 58 58 58 57 58 57 56 56 55 55 55 55 56
65 65 64 65 66 65 64 64 64 64 62 61 60 59 60 60 60 60 59 59 59 59 59 59 60 60 61 62 62 60 58 57 57 56 56 57 56 56 55 55 54 55 56
64 64 64 65 65 64 64 64 64 62 62 62 61 61 61 62 61 61 60 60 59 59 59 59 60 61 62 62 62 61 59 58 57 57 57 57 57 56 55 55 54 55 55
64 64 64 64 63 63 63 63 63 61 62 62 60 59 57 56 60 60 60 60 59 59 59 60 60 59 61 63 62 61 60 59 58 58 58 58 57 56 55 54 54 55 55
63 65 64 64 63 63 62 63 62 62 60 62 61 55 54 51 51 56 59 60 59 60 60 60 60 60 61 62 62 61 60 59 59 58 58 58 58 56 55 55 54 55 55
62 63 63 63 62 63 62 62 62 62 61 59 61 59 55 53 50 49 56 58 60 59 60 60 58 59 61 62 61 61 60 58 58 58 58 59 58 57 56 55 54 54 55
63 62 63 63 64 63 63 63 62 63 62 61 59 57 58 57 56 52 49 54 57 58 57 58 59 59 60 60 61 61 59 57 57 58 58 59 58 57 56 55 55 55 55
64 64 65 65 64 64 64 64 63 63 62 61 59 57 56 56 56 56 53 52 51 53 56 57 59 59 60 60 61 61 58 56 56 57 58 58 59 58 56 56 55 54 55
63 64 64 64 64 64 64 64 64 62 62 62 61 58 57 55 55 55 54 52 51 54 55 57 58 59 60 61 61 60 56 55 55 56 57 57 58 58 57 56 55 54 54
63 63 64 64 64 64 64 64 64 63 63 63 61 59 58 58 56 56 57 54 53 54 54 55 57 59 60 60 60 59 58 54 54 54 56 56 56 57 57 56 56 55 55
59 63 63 63 63 63 63 64 63 62 63 63 62 61 60 59 59 58 57 57 55 52 51 54 54 58 59 60 60 59 59 56 54 52 53 55 55 55 55 56 56 56 56
53 58 63 63 62 63 62 63 62 62 62 62 62 61 60 60 60 59 58 57 57 55 52 54 55 55 59 59 59 59 58 57 54 52 52 53 54 54 54 55 55 55 55
49 54 61 61 62 62 62 62 61 61 60 61 61 60 59 60 59 59 58 57 57 56 54 55 55 56 57 57 57 59 58 58 56 52 51 51 52 52 53 53 53 54 54
43 46 50 60 60 60 61 61 60 59 59 59 59 59 59 59 59 58 57 56 56 55 55 53 55 55 56 57 56 56 57 57 57 55 52 51 51 51 51 51 51 52 52
40 41 42 43 47 57 59 60 59 59 59 59 59 59 58 58 57 57 56 55 55 56 56 55 53 55 56 57 56 56 56 55 56 56 53 52 52 50 49 50 50 50 50
35 37 38 38 38 37 37 39 44 56 59 59 59 59 58 58 57 56 56 55 55 56 56 55 54 53 54 55 55 53 53 55 54 54 49 50 50 48 48 48 48 48 49
34 34 34 34 34 34 34 35 39 45 54 58 58 58 58 58 57 56 56 56 55 55 55 54 52 52 52 52 52 53 53 53 54 51 48 47 47 47 45 45 47 47 47
33 33 33 32 32 32 33 35 36 45 49 55 56 57 57 57 56 54 54 55 56 55 54 54 53 52 52 52 53 53 53 52 48 47 46 39 40 38 39 40 40 41 42
32 31 31 32 31 30 31 33 36 38 37 36 36 37 48 56 55 56 53 53 54 55 55 55 54 54 53 53 53 53 53 52 51 46 42 36 36 35 37 38 38 38 38
31 30 30 30 30 29 30 30 33 35 34 33 32 32 34 37 36 40 55 53 52 49 49 50 54 55 55 55 54 54 53 50 39 38 39 34 33 31 33 35 36 36 36
29 30 29 29 29 29 29 29 29 30 30 30 30 31 30 31 32 35 44 50 45 39 35 36 36 36 37 40 45 51 48 45 39 37 35 32 31 30 31 31 33 33 33
29 28 29 29 28 28 28 29 29 28 26 27 28 28 29 30 31 32 39 43 42 36 33 32 33 31 31 31 32 38 47 46 40 36 35 31 30 29 26 29 31 31 31

GFSMA_sfc_30mbdewp_129.txt.gz
Dewpoint
65 66 65 65 65 64 63 63 61 61 62 61 61 60 60 60 59 58 64 63 63 64 63 63 62 62 63 63 63 61 60 60 60 59 58 57 57 56 56 53 54 54 55
65 65 66 66 65 65 65 64 63 62 62 62 61 60 59 60 59 59 64 63 62 62 63 64 63 62 63 63 63 61 61 61 60 60 58 57 56 56 55 54 54 53 55
65 64 64 66 63 65 65 65 64 63 61 61 61 61 59 59 58 58 58 63 62 62 62 63 63 63 62 63 62 63 62 61 60 60 59 57 56 56 55 54 54 54 55
65 65 64 64 66 65 65 65 64 63 62 61 61 61 60 60 59 59 60 59 62 61 61 62 64 64 63 63 61 61 61 61 60 60 59 57 57 56 55 54 54 54 53
66 65 66 65 67 65 65 65 64 62 60 59 61 61 60 60 60 59 60 60 60 59 60 61 62 63 63 63 63 61 60 60 60 59 58 58 57 56 55 54 54 54 54
67 66 65 66 65 63 65 66 65 64 62 59 58 59 61 61 60 61 60 59 60 60 60 59 61 61 62 62 63 62 60 59 59 58 58 58 58 57 56 54 54 54 55
66 66 64 64 65 64 64 65 65 64 62 62 61 60 60 61 61 60 60 60 60 60 60 60 61 61 60 62 62 62 60 59 59 58 59 58 58 57 56 54 54 54 55
65 65 65 63 64 63 64 64 64 63 63 63 60 59 56 55 59 60 60 59 59 58 59 58 59 60 62 61 62 62 61 60 60 59 59 59 58 57 56 55 54 54 55
63 64 64 63 64 64 63 63 64 62 61 62 61 57 52 50 48 57 59 59 59 58 58 58 60 60 60 62 62 61 61 60 60 59 59 59 58 57 57 56 55 54 54
62 64 64 64 64 64 62 63 63 62 61 60 62 62 60 55 50 47 55 57 59 59 60 61 60 60 60 60 62 62 60 60 60 59 59 59 58 58 57 56 55 54 54
62 62 65 63 64 64 64 63 63 62 62 60 60 59 60 59 56 54 50 53 57 58 58 59 59 60 59 60 61 62 60 59 58 60 59 59 59 58 57 56 55 55 54
64 64 63 64 64 64 64 63 64 62 62 62 61 60 58 57 56 55 54 53 51 54 56 57 59 59 60 60 60 61 59 58 58 58 59 59 59 59 58 57 56 55 55
64 63 64 65 65 65 65 64 64 63 63 62 61 61 60 57 56 56 55 54 51 51 55 55 56 59 59 61 60 60 59 58 58 57 58 58 59 59 58 57 56 56 55
61 64 65 65 65 64 64 64 64 64 63 63 61 60 61 59 58 56 54 54 53 53 54 55 57 58 59 60 60 59 59 57 57 56 56 57 58 58 58 57 56 56 56
54 57 62 64 64 64 64 64 64 64 64 63 63 63 62 60 59 57 57 56 55 53 53 53 55 57 58 60 60 60 61 56 56 55 55 55 56 57 57 57 56 56 56
50 52 55 61 62 63 63 63 63 64 63 63 63 63 62 61 61 60 59 58 58 56 54 53 51 54 57 58 59 60 60 58 55 53 53 54 55 55 55 56 55 55 55
44 45 48 49 59 62 62 62 62 62 62 62 62 62 62 62 61 61 60 60 58 57 55 54 53 55 57 57 58 59 60 59 57 54 52 52 53 54 54 54 54 55 54
40 40 40 41 40 41 42 45 57 62 61 61 61 61 61 61 61 61 60 59 59 58 56 54 54 56 56 57 58 58 58 59 58 53 53 53 52 52 52 53 53 53 53
37 37 36 36 36 36 36 38 41 45 57 60 60 59 59 59 59 60 59 59 58 58 57 55 54 56 56 57 57 57 57 57 58 54 53 52 51 50 50 50 51 51 51
35 35 35 34 35 33 34 35 38 41 45 50 59 60 59 59 59 59 59 58 58 57 55 55 55 55 55 56 56 54 54 56 55 56 53 53 51 50 50 50 50 50 50
34 34 34 33 32 32 33 34 38 43 45 46 45 53 59 59 59 59 58 58 57 56 55 55 55 54 54 53 53 54 53 54 54 53 50 49 50 49 48 47 48 47 48
32 32 33 33 30 30 31 32 37 37 36 35 35 35 39 45 39 50 56 56 57 56 55 55 54 53 53 53 54 54 53 52 50 51 50 44 44 44 42 43 42 44 45
31 31 30 31 30 29 30 31 32 34 32 32 32 31 33 34 35 36 39 47 53 52 54 55 54 53 53 53 54 53 53 52 51 49 46 40 38 38 38 39 39 40 41
30 29 29 29 29 28 28 29 31 31 30 30 30 30 30 31 31 32 37 42 52 54 52 53 55 55 55 55 54 54 53 52 43 43 44 40 34 32 34 37 38 38 37
29 28 28 27 27 27 27 28 30 30 31 29 28 28 29 28 30 31 36 39 46 39 35 37 37 37 37 39 44 55 52 46 41 40 37 35 31 30 31 31 33 36 36
29 29 29 30 27 27 26 27 28 28 28 29 29 28 27 28 28 29 30 32 35 32 33 33 32 31 31 32 33 36 50 49 42 38 36 34 30 29 27 30 31 32 33